     2              OBSERVATION DATA    GPS                 RINEX VERSION / TYPE
ASHTORIN MIT 05 - JUN - 97 21:02                            PGM / RUN BY / DATE
                                                            COMMENT
--> THIS IS THE START OF A NEW SITE <---                    COMMENT
--> THIS IS THE START OF A NEW SITE <---                    COMMENT
Original Marker Name: GS22                                  COMMENT
Campaign Name: China Lake May 1997                          COMMENT
4-Character Station Name: GS22                              COMMENT
6-Character Antenna Code: ASHGD3                            COMMENT
Vertical Measurement Point: TGP                             COMMENT
Vertical Offset to Rinex Ref. Point: 0.0640                 COMMENT
Radial Measurement Point: RRP                               COMMENT
Radial Offset to Rinex Ref. Point: 0.0000                   COMMENT
Antenna Height from Field Measurement: 0.1980 m             COMMENT
Additional Antenna Identification Info.:                    COMMENT
The Whopper (700718AB)                                      COMMENT
Original XYZ: -2435897.9000 -4555584.6800 3731282.9400      COMMENT
New XYZ position is based on association with SCEC monument COMMENT
E1F4E2W0+0011. Position of that monument is believed to be  COMMENT
valid to within 1 m horizontally; vertical accuracy         COMMENT
should be no worse than 3-times this value.                 COMMENT
                                                            COMMENT
Revised Rinex header created by UCSD GPS archive for        COMMENT
GSAC on 01-Aug-2000 (2000:214) 04:40:29 GMT                 COMMENT
For assistance contact dagnew@ucsd.edu                      COMMENT
or anderson@python.ucsd.edu                                 COMMENT
                                                            COMMENT
GO22 BLM CACA 36488                                         MARKER NAME
gs22                                                        MARKER NUMBER
KEA US DEFENSE MAPPING AGENCY                               OBSERVER / AGENCY
448 ASHTECH Z-XII3 1G001C7                                  REC # / TYPE / VERS
812 ASHTECH GEODETIC III                                    ANT # / TYPE
 -2428156.3178 -4572571.9450  3715168.8505                  APPROX POSITION XYZ
        0.1340        0.0000        0.0000                  ANTENNA: DELTA H/E/N
     1     1     0                                          WAVELENGTH FACT L1/2
     7    L1    L2    C1    P1    P2    D1    D2            # / TYPES OF OBSERV
    30                                                      INTERVAL
  1997     4    29    15    25    0.000000                  TIME OF FIRST OBS
  1997     4    29    21    30    0.000000                  TIME OF LAST OBS
                                                            END OF HEADER
 97  4 29 15 25  0.0000000  0  7 19  2 18 31  7 27 10               -0.001136128
     38669.66019     22399.95358  18327219.405           0.0005   18327228.7895
     -1417.282       -1104.376
    -37186.20219    -24930.73556  18713867.982           0.0005          0.0005
      1226.752         955.911
     92752.01119     56329.69453  20243863.411           0.0005          0.0005
     -3559.717       -2773.805
     67828.95119     39719.87657  19870511.132           0.0005   19870517.9995
     -2512.616       -1957.883
    -92429.36919    -56516.37553  20753541.253           0.0005          0.0005
      3568.228        2780.437
    -28106.88319    -16791.96356  17533264.296           0.0005          0.0005
      1045.841         814.941
     31635.01119     18263.52952  21421254.272           0.0005          0.0005
     -1640.920       -1278.639
 97  4 29 15 25 30.0000000  3  2
GS22                                                        MARKER NAME
--> THIS IS THE START OF A NEW SITE <---                    COMMENT
 97  4 29 15 25 30.0000000  0  7 19  2 18 31  7 27 10               -0.001137099
     81304.019 9     55621.51648  18335333.321    18335334.4235   18335341.8614
     -1425.511       -1110.788
    -73866.155 9    -53659.83754  18706887.832           0.0004          0.0005
      1218.030         949.114
    199614.451 9    139599.11357  20264196.060           0.0005   20264206.9945
     -3564.970       -2777.899
    143394.057 9     98601.75347  19884888.458    19884890.3735   19884897.5454
     -2525.669       -1968.054
   -199460.178 9   -139916.84556  20733171.974           0.0005   20733183.4595
      3566.436        2779.041
    -59344.461 9    -41540.24554  17527319.355           0.0004          0.0005
      1036.155         807.394
     80984.235 9     56717.35156  21430642.732           0.0005   21430652.7505
     -1649.752       -1285.521
 97  4 29 15 26  0.0000000  0  7 19  2 18 31  7 27 10                0.000473456
    124198.225 9     89045.55748  21341420.439    21341421.4884   21341428.9714
     -1434.907       -1118.109
   -110247.931 9    -82450.20254  21697888.790           0.0004          0.0005
      1208.600         941.766
    306622.463 9    222981.94347  23282485.026    23282485.8005   23282494.4514
     -3570.961       -2782.567
    219357.745 9    157794.20347  22897268.518    22897270.4634   22897277.6014
     -2540.212       -1979.386
   -306362.470 9   -223217.28646  23710757.167    23710755.8965   23710765.2634
      3562.856        2776.251
    -90249.478 9    -66153.22856  20519363.606           0.0004          0.0005
      1025.185         798.845
    130620.128 9     95394.63546  24438013.265    24438013.5235   24438022.8824
     -1660.409       -1293.825
 97  4 29 15 26 30.0000000  0  7 19  2 18 31  7 27 10                0.000472472
    167381.617 9    122694.94058  21349638.152    21349639.0555   21349646.5155
     -1443.811       -1125.048
   -146370.079 9    -22485.08656  21691015.961           0.0005          0.0005
      1199.828         934.931
    413829.70919    306519.89457  23302890.729    23302887.2585   23302895.2895
     -3575.995       -2786.490
    295784.886 9    217347.78357  22911809.744    22911814.1085   22911821.2335
     -2554.648       -1990.635
   -413201.856 9   -306468.73256  23690430.434    23690425.3285   23690433.7195
      3559.962        2773.996
   -120839.764 9    -14500.66258  20513542.081           0.0005   20513549.8775
      1014.356         790.407
    180602.019 9    134341.52456  24447523.201    24447524.9405   24447534.1395
     -1671.552       -1302.508
 97  4 29 15 27  0.0000000  0  7 19  2 18 31  7 27 10                0.000471483
    210823.323 9    156545.60348  21357904.821    21357905.7404   21357913.2134
     -1452.240       -1131.616
   -182250.098 9    -50678.73855  21684188.131           0.0004          0.0005
      1192.388         929.134
    521180.319 9    390169.59357  23323316.746    23323315.4655   23323323.5955
     -3580.632       -2790.103
    372639.746 9    277234.66647  22926436.893    22926439.1354   22926446.2624
     -2568.878       -2001.723
   -519959.747 9   -389656.66046  23670112.984    23670109.7904   23670118.5064
      3557.420        2772.015
   -151115.409 9    -38092.07948  20507780.894    20507781.7875   20507788.6954
      1004.166         782.467
    230918.899 9    173549.44046  24457099.056    24457099.9664   24457109.0864
     -1682.660       -1311.164
 97  4 29 15 27 30.0000000  0  7 19  2 18 31  7 27 10                0.000470500
    254525.230 9    190599.01948  21366220.964    21366221.9534   21366229.4424
     -1462.042       -1139.254
   -217917.922 9    -78803.09154  21677400.671           0.0004          0.0005
      1184.960         923.345
    628667.608 9    473925.87847  23343770.122    23343769.6464   23343777.8944
     -3585.967       -2794.260
    449925.211 9    337457.07247  22941144.549    22941146.1064   22941153.1974
     -2584.176       -2013.644
   -626624.804 9   -472772.26046  23649813.234    23649812.1614   23649820.9044
      3552.897        2768.491
   -181089.013 9    -61448.13948  20502077.240    20502078.0074   20502084.9424
       993.572         774.212
    281563.225 9    213012.49246  24466736.763    24466737.2954   24466746.3674
     -1694.170       -1320.132
 97  4 29 15 28  0.0000000  0  7 19  2 18 31  7 27 10                0.000469551
    298549.436 9    224903.58148  21374598.499    21374599.5094   21374607.0074
     -1472.713       -1147.569
   -253361.839 9    -20085.26557  21670655.858           0.0005          0.0005
      1177.985         917.910
    736339.542 9    557826.03746  23364258.993    23364258.9744   23364267.2384
     -3592.019       -2798.976
    527679.198 9    398044.56347  22955940.902    22955942.2254   22955949.3474
     -2599.292       -2025.422
   -733136.961 9   -555768.71646  23629543.963    23629543.5564   23629552.3804
      3548.031        2764.699
   -210735.123 9    -84549.01448  20496435.714    20496436.5544   20496443.4914
       982.987         765.964
    332558.443 9    252749.00046  24476441.005    24476441.4324   24476450.5474
     -1705.191       -1328.720
 97  4 29 15 28 30.0000000  0  7 19  2 18 31  7 27 10                0.000468617
    342884.966 9    259450.73348  21383035.302    21383036.3164   21383043.8484
     -1483.064       -1155.634
   -288592.454 9    -47554.47558  21663951.616           0.0005   21663959.7735
      1170.491         912.071
    844184.316 9    641860.89046  23384781.128    23384781.2514   23384789.4004
     -3597.793       -2803.475
    605875.125 9    458976.42647  22970821.332    22970822.4504   22970829.6214
     -2613.940       -2036.836
   -839505.471 9   -638653.24046  23609302.342    23609302.3024   23609311.1784
      3543.097        2760.855
   -240072.084 9   -107408.98848  20490853.123    20490853.9414   20490860.8964
       972.615         757.882
    383863.030 9    292726.56146  24486204.089    24486204.4234   24486213.5934
     -1715.080       -1336.426
 97  4 29 15 29  0.0000000  0  7 19  2 18 31  7 27 10                0.000467694
    387549.064 9    294253.91148  21391534.640    21391535.6814   21391543.2224
     -1494.701       -1164.702
   -323589.737 9    -74825.07248  21657291.841    21657292.5885   21657300.1504
      1162.325         905.708
    952219.354 9    726044.00346  23405339.531    23405339.7674   23405347.8624
     -3604.772       -2808.913
    684520.202 9    520258.27347  22985786.972    22985788.1554   22985795.3344
     -2629.374       -2048.863
   -945712.060 9   -721411.60546  23589091.576    23589091.9054   23589100.7674
      3537.178        2756.243
   -269091.639 9   -130021.62948  20485330.922    20485331.7244   20485338.7044
       961.819         749.469
    435459.389 9    332931.47046  24496022.579    24496022.9844   24496032.1384
     -1724.959       -1344.124
 97  4 29 15 29 30.0000000  0  7 19  2 18 31  7 27 10                0.000466792
    432552.790 9    329321.73148  21400098.545    21400099.6194   21400107.1934
     -1505.716       -1173.285
   -358336.713 9   -101900.63048  21650679.764    21650680.5304   21650688.0844
      1153.902         899.144
   1060458.473 9    810386.13446  23425936.726    23425937.0364   23425945.2264
     -3611.329       -2814.023
    763626.903 9    581899.82647  23000840.681    23000841.7084   23000848.8684
     -2644.665       -2060.778
  -1051740.870 9   -804031.43446  23568914.890    23568915.2064   23568924.1674
      3531.186        2751.573
   -297794.905 9   -152387.81748  20479868.866    20479869.6824   20479876.6814
       951.536         741.457
    487342.159 9    373359.55446  24505895.709    24505895.9884   24505905.1724
     -1734.365       -1351.453
 97  4 29 15 30  0.0000000  0  8 19  2 18 31  7 27 10 15             0.000465919
    477900.831 9    364657.84948  21408727.992    21408729.1064   21408736.6754
     -1517.219       -1182.249
   -392801.159 9   -128756.03848  21644121.462    21644122.1514   21644129.7254
      1143.570         891.094
   1168905.419 9    894890.19446  23446573.332    23446573.8004   23446582.1264
     -3618.187       -2819.366
    843207.879 9    643910.93947  23015984.569    23015985.4994   23015992.6724
     -2660.484       -2073.104
  -1157577.640 9   -886501.63446  23548774.621    23548775.2074   23548784.2264
      3524.692        2746.513
   -326168.948 9   -174497.46248  20474469.512    20474470.2904   20474477.3144
       940.149         732.584
    539530.194 9    414025.51746  24515826.934    24515827.1184   24515836.2914
     -1744.726       -1359.527
   -611916.10818   -464787.77455  25247506.472    25247505.9825   25247515.6125
      2442.872        1903.537
 97  4 29 15 30 30.0000000  0  8 19  2 18 31  7 27 10 15             0.000465075
    523594.666 9    400263.41448  21417423.266    21417424.4034   21417431.9734
     -1529.359       -1191.708
   -426932.719 9   -155352.04948  21637626.379    21637627.0834   21637634.6774
      1131.783         881.909
   1277558.205 9    979554.65546  23467249.094    23467249.7414   23467258.1064
     -3625.624       -2825.162
    923260.767 9    706289.77347  23031218.358    23031219.0884   23031226.2724
     -2676.712       -2085.750
  -1263216.219 9   -968817.39246  23528672.114    23528672.9064   23528681.8974
      3517.733        2741.091
   -354194.888 9   -196335.85748  20469136.394    20469137.1644   20469144.2064
       928.000         723.117
    592040.661 9    454942.71146  24525819.418    24525819.5804   24525828.7444
     -1756.326       -1368.566
   -685102.358 8   -521815.97745  25233579.868    25233579.1294   25233588.8264
      2435.927        1898.125
 97  4 29 15 31  0.0000000  0  8 19  2 18 31  7 27 10 15             0.000464304
    569697.824 9    436187.93348  21426196.473    21426197.5844   21426205.1694
     -1544.359       -1203.397
   -460675.194 9   -181644.88048  21631205.417    21631206.1304   21631213.7104
      1117.643         870.891
   1386479.469 9   1064428.33346  23487976.193    23487976.8794   23487985.1834
     -3635.796       -2833.088
   1003838.699 9    769077.74247  23046552.084    23046552.5904   23046559.8304
     -2695.297       -2100.231
  -1368604.567 9  -1050938.16446  23508617.542    23508618.1554   23508627.1804
      3508.173        2733.641
   -381816.455 9   -217859.15948  20463880.199    20463880.9964   20463888.0534
       913.384         711.728
    644954.909 9    496174.54846  24535888.749    24535888.8634   24535898.0224
     -1771.463       -1380.361
   -758041.692 8   -578651.76045  25219699.559    25219699.1804   25219708.9644
      2426.456        1890.745
 97  4 29 15 31 30.0000000  0  8 19  2 18 31  7 27 10 15             0.000463638
    616259.463 9    472469.70748  21435056.882    21435057.9994   21435065.5944
     -1559.880       -1215.491
   -493977.376 9   -207594.62248  21624868.391    21624868.9804   21624876.5414
      1102.424         859.032
   1495706.315 9   1149540.12046  23508761.223    23508762.0924   23508770.3674
     -3646.140       -2841.148
   1084982.975 9    832307.01447  23061992.955    23061993.9064   23062001.1704
     -2714.375       -2115.097
  -1473693.688 9  -1132825.77946  23488619.532    23488620.4034   23488629.3904
      3497.638        2725.432
   -408988.981 9   -239032.55948  20458709.400    20458710.2494   20458717.2944
       897.930         699.686
    698337.062 9    537770.98046  24546047.072    24546047.2024   24546056.3344
     -1787.429       -1392.802
   -830686.725 8   -635258.22845  25205875.801    25205875.3164   25205884.9074
      2416.372        1882.887
 97  4 29 15 32  0.0000000  0  8 19  2 18 31  7 27 10 15             0.000463085
    663301.561 9    509125.86948  21444008.771    21444009.8894   21444017.4534
     -1576.159       -1228.176
   -526810.016 9   -233178.48748  21618620.521    21618621.1284   21618628.7404
      1086.414         846.556
   1605255.316 9   1234902.93146  23529607.894    23529608.5604   23529616.8774
     -3657.228       -2849.788
   1166696.397 9    895979.76947  23077542.753    23077543.5024   23077550.8084
     -2733.356       -2129.888
  -1578463.283 9  -1214464.41146  23468682.644    23468683.4764   23468692.3814
      3486.954        2717.107
   -435681.105 9   -259831.61848  20453630.104    20453630.9244   20453637.9684
       881.414         686.816
    752211.225 9    579750.81846  24556299.077    24556299.1754   24556308.3694
     -1804.119       -1405.807
   -903013.931 8   -691617.03545  25192111.817    25192111.8364   25192121.4964
      2405.484        1874.403
 97  4 29 15 32 30.0000000  0  8 19  2 18 31  7 27 10 15             0.000462663
    710845.811 9    546173.31848  21453056.173    21453057.3024   21453064.8754
     -1593.293       -1241.527
   -559162.505 9   -258388.21648  21612463.895    21612464.6274   21612472.2474
      1070.834         834.416
   1715159.593 9   1320542.56746  23550522.039    23550522.6824   23550530.9914
     -3669.576       -2859.410
   1249005.858 9    960116.97547  23093205.810    23093206.5674   23093213.8384
     -2753.998       -2145.972
  -1682898.509 9  -1295842.50546  23448809.345    23448810.1654   23448818.9874
      3475.484        2708.169
   -461860.238 9   -280230.94848  20448648.328    20448649.2154   20448656.2864
       863.944         673.203
    806603.156 9    622134.08346  24566649.470    24566649.6774   24566658.8474
     -1821.981       -1419.725
   -974995.064 8   -747706.18445  25178413.874    25178414.1364   25178423.9924
      2393.489        1865.056
 97  4 29 15 33  0.0000000  0  8 19  2 18 31  7 27 10 15             0.000462391
    758893.196 9    583612.82148  21462199.320    21462200.4354   21462208.0334
     -1609.427       -1254.099
   -591071.498 9   -283252.36748  21606391.896    21606392.5844   21606400.1344
      1056.853         823.522
   1825422.384 9   1406461.57946  23571504.372    23571505.0744   23571513.3754
     -3680.607       -2868.005
   1331932.174 9   1024734.84547  23108986.090    23108986.9624   23108994.2274
     -2773.982       -2161.544
  -1786995.457 9  -1376956.99646  23429000.225    23429001.1804   23429010.0264
      3464.886        2699.911
   -487521.764 9   -300226.94248  20443765.091    20443765.9984   20443773.0704
       847.321         660.250
    861526.142 9    664931.16946  24577101.073    24577101.2224   24577110.3714
     -1838.910       -1432.917
  -1046625.040 8   -803521.72245  25164782.375    25164783.2754   25164793.2814
      2382.410        1856.423
 97  4 29 15 33 30.0000000  0  8 19  2 18 31  7 27 10 15             0.000462240
    807408.350 9    621416.81948  21471431.419    21471432.6084   21471440.2284
     -1624.919       -1266.171
   -622575.058 9   -307800.58448  21600397.005    21600397.6334   21600405.1824
      1043.382         813.025
   1935993.457 9   1492620.81646  23592545.400    23592546.1044   23592554.4074
     -3690.886       -2876.015
   1415436.589 9   1089803.19047  23124876.678    23124877.3714   23124884.6314
     -2793.037       -2176.392
  -1890795.606 9  -1457840.20447  23409247.653    23409248.6364   23409257.5544
      3454.976        2692.189
   -512696.865 9   -319843.90448  20438974.471    20438975.3784   20438982.4354
       830.885         647.443
    916926.806 9    708100.49346  24587643.593    24587643.6344   24587652.8934
     -1854.473       -1445.044
  -1117944.395 8   -859095.20345  25151211.674    25151211.4104   25151221.7354
      2372.104        1848.393
 97  4 29 15 34  0.0000000  0  8 19  2 18 31  7 27 10 15             0.000462192
    856379.228 9    659575.92248  21480750.274    21480751.4794   21480759.1074
     -1639.462       -1277.503
   -653696.176 9   -332050.79448  21594474.879    21594475.4854   21594483.0884
      1031.716         803.935
   2046858.279 9   1579008.95446  23613642.227    23613642.9904   23613651.3684
     -3699.625       -2882.825
   1499498.772 9   1155306.14647  23140873.244    23140873.8994   23140881.1724
     -2810.951       -2190.351
  -1994317.333 9  -1538506.47647  23389548.137    23389549.0754   23389558.0574
      3446.737        2685.769
   -537384.775 9   -339081.23848  20434276.538    20434277.4404   20434284.5214
       815.359         635.345
    972780.674 9    751622.93446  24598272.288    24598272.3884   24598281.6464
     -1868.659       -1456.098
  -1188965.314 8   -914436.17045  25137696.700    25137696.6224   25137706.7504
      2362.881        1841.206
 97  4 29 15 34 30.0000000  0  8 19  2 18 31  7 27 10 15             0.000462218
    905768.713 9    698061.21348  21490148.833    21490150.0134   21490157.6344
     -1653.415       -1288.375
   -684497.801 9   -356052.05148  21588613.520    21588614.1234   21588621.7064
      1021.464         795.946
   2157958.107 9   1665580.20046  23634783.850    23634784.5924   23634793.0044
     -3707.128       -2888.671
   1584078.442 9   1221212.34647  23156968.007    23156968.9544   23156976.2164
     -2827.717       -2203.416
  -2097607.121 9  -1618992.01347  23369892.879    23369893.6824   23369902.6424
      3439.020        2679.756
   -561636.043 9   -357978.32948  20429661.718    20429662.6004   20429669.7134
       801.208         624.318
   1029027.550 9    795451.61246  24608975.774    24608975.8194   24608985.0584
     -1881.305       -1465.952
  -1259733.579 8   -969580.26945  25124229.327    25124229.8864   25124239.9284
      2354.830        1834.932
 97  4 29 15 35  0.0000000  0  8 19  2 18 31  7 27 10 15             0.000462303
    955581.575 9    736876.41348  21499627.906    21499629.1024   21499636.7394
     -1667.164       -1299.089
   -714974.980 9   -379800.49448  21582813.857    21582814.5244   21582822.0864
      1010.422         787.342
   2269275.666 9   1752321.11146  23655967.005    23655967.7264   23655976.1154
     -3713.743       -2893.826
   1669152.104 9   1287503.46947  23173157.271    23173157.9284   23173165.2404
     -2843.608       -2215.798
  -2200661.151 9  -1699293.83247  23350282.222    23350283.2244   23350292.1174
      3431.495        2673.892
   -585457.831 9   -376540.76348  20425128.576    20425129.5084   20425136.5834
       787.191         613.396
   1085643.254 9    839567.70946  24619749.367    24619749.4384   24619758.7114
     -1892.660       -1474.800
  -1330257.475 8  -1024533.93445  25110807.731    25110809.6714   25110819.7184
      2347.062        1828.879
 97  4 29 15 35 30.0000000  0  8 19  2 18 31  7 27 10 15             0.000462426
   1005807.699 9    776013.63248  21509185.634    21509186.8484   21509194.4934
     -1680.510       -1309.488
   -745109.858 9   -403282.21148  21577079.376    21577080.0734   21577087.6424
       999.078         778.502
   2380799.371 9   1839222.64746  23677189.065    23677190.0004   23677198.5184
     -3720.719       -2899.262
   1754702.654 9   1354166.19747  23189436.734    23189437.6634   23189445.0294
     -2859.287       -2228.016
  -2303481.605 9  -1779413.64747  23330716.066    23330717.1074   23330726.0464
      3423.452        2667.625
   -608848.502 9   -394767.26548  20420677.458    20420678.4114   20420685.5004
       772.755         602.147
   1142593.114 9    883944.18946  24630586.613    24630586.7354   24630596.0814
     -1903.481       -1483.232
  -1400544.445 8  -1079303.01245  25097434.130    25097434.5614   25097444.3824
      2339.128        1822.697
 97  4 29 15 36  0.0000000  0  8 19  2 18 31  7 27 10 15             0.000462576
   1056404.212 9    815439.47548  21518813.895    21518815.0814   21518822.7494
     -1692.488       -1318.822
   -774927.425 9   -426516.67248  21571405.245    21571405.9574   21571413.5634
       988.747         770.452
   2492515.572 9   1926274.18846  23698447.926    23698448.8354   23698457.4474
     -3727.063       -2904.205
   1840702.981 9   1421179.40747  23205801.871    23205803.0244   23205810.3994
     -2874.175       -2239.617
  -2406072.047 9  -1859354.22147  23311193.737    23311194.8274   23311203.7734
      3415.820        2661.678
   -631829.954 9   -412674.88348  20416304.264    20416305.1904   20416312.2924
       759.494         591.813
   1199846.746 9    928557.36846  24641481.715    24641481.7884   24641491.1404
     -1913.463       -1491.010
  -1470612.727 8  -1133901.65945  25084100.373    25084101.0224   25084110.9854
      2331.850        1817.026
 97  4 29 15 36 30.0000000  0  8 19  2 18 31  7 27 10 15             0.000462763
   1107350.910 9    855138.18348  21528508.714    21528509.9214   21528517.6114
     -1703.703       -1327.561
   -804424.902 9   -449501.71348  21565791.962    21565792.7694   21565800.3854
       977.866         761.974
   2604433.177 9   2013482.66046  23719745.202    23719746.0494   23719754.6074
     -3733.956       -2909.576
   1927148.423 9   1488539.45847  23222252.127    23222253.0954   23222260.4804
     -2888.644       -2250.891
  -2508420.058 9  -1939105.89447  23291717.561    23291718.7044   23291727.5594
      3407.567        2655.247
   -654424.069 9   -430280.68848  20412004.743    20412005.6734   20412012.7694
       746.827         581.943
   1257400.600 9    973404.47946  24652433.801    24652433.9724   24652443.2744
     -1923.351       -1498.715
  -1540464.165 8  -1188331.32345  25070809.007    25070808.7884   25070818.7034
      2324.751        1811.494
 97  4 29 15 37  0.0000000  0  8 19  2 18 31  7 27 10 15             0.000462983
   1158624.104 9    895091.30448  21538265.695    21538266.9224   21538274.6194
     -1714.328       -1335.840
   -833595.318 9   -472231.89948  21560241.037    21560241.8264   21560249.4054
       967.111         753.593
   2716554.146 9   2100849.61846  23741081.095    23741082.0134   23741090.6094
     -3740.553       -2914.717
   2014020.026 9   1556231.57647  23238783.449    23238784.2484   23238791.6514
     -2902.699       -2261.843
  -2610521.257 9  -2018665.24547  23272288.446    23272289.5024   23272298.3284
      3399.375        2648.864
   -676636.921 9   -447589.40548  20407777.772    20407778.7074   20407785.7854
       734.269         572.158
   1315252.491 9   1018483.83346  24663442.712    24663442.9324   24663452.1894
     -1933.366       -1506.519
  -1610101.466 8  -1242594.12945  25057557.225    25057557.1714   25057567.0484
      2317.619        1805.937
 97  4 29 15 37 30.0000000  0  8 19  2 18 31  7 27 10 15             0.000463242
   1210215.819 9    935292.62548  21548083.285    21548084.5404   21548092.2414
     -1724.520       -1343.782
   -862461.052 9   -494724.67148  21554748.007    21554748.8504   21554756.4414
       957.951         746.455
   2828879.376 9   2188375.73746  23762456.038    23762456.8654   23762465.4204
     -3747.120       -2919.834
   2101306.877 9   1624247.27247  23255393.929    23255394.3764   23255401.8344
     -2915.764       -2272.024
  -2712373.750 9  -2098030.79647  23252906.368    23252907.6224   23252916.4514
      3391.368        2642.624
   -698485.395 9   -464614.18748  20403620.245    20403621.0844   20403628.1844
       723.024         563.395
   1373412.180 9   1063803.01646  24674510.136    24674510.3374   24674519.7254
     -1943.267       -1514.234
  -1679519.137 8  -1296685.78245  25044346.976    25044347.6014   25044357.2984
      2310.869        1800.677
 97  4 29 15 38  0.0000000  0  8 19  2 18 31  7 27 10 15             0.000463547
   1262132.489 9    975747.15848  21557962.727    21557963.9764   21557971.6754
     -1736.004       -1352.730
   -891042.321 9   -516995.78048  21549309.235    21549309.9964   21549317.6224
       948.103         738.782
   2941406.953 9   2276059.51846  23783869.318    23783870.1964   23783878.8204
     -3753.845       -2925.074
   2188997.021 9   1692577.21347  23272080.650    23272081.2944   23272088.7664
     -2929.611       -2282.814
  -2813977.402 9  -2177202.44447  23233571.955    23233573.0874   23233581.8984
      3383.046        2636.140
   -719994.665 9   -481374.65948  20399527.121    20399528.0204   20399535.1314
       711.490         554.408
   1431886.888 9   1109367.67746  24685637.645    24685637.7654   24685647.1554
     -1954.385       -1522.897
  -1748713.552 8  -1350603.44545  25031179.157    25031180.1924   25031190.1754
      2302.852        1794.430
 97  4 29 15 38 30.0000000  0  8 19  2 18 31  7 27 10 15             0.000463885
   1314377.319 9   1016457.40048  21567904.593    21567905.8334   21567913.5594
     -1747.385       -1361.599
   -919352.500 9   -539055.65248  21543922.059    21543922.7624   21543930.3794
       938.902         731.612
   3054104.445 9   2363875.70046  23805314.773    23805315.8484   23805324.5024
     -3759.544       -2929.515
   2277076.005 9   1761210.14647  23288841.108    23288842.2104   23288849.6854
     -2942.796       -2293.088
  -2915362.869 9  -2256204.09247  23214279.062    23214280.0764   23214288.8574
      3375.691        2630.409
   -741179.337 9   -497882.20048  20395495.857    20395496.7404   20395503.7954
       700.025         545.474
   1490665.123 9   1155168.85246  24696822.835    24696822.9644   24696832.2814
     -1964.458       -1530.746
  -1817696.106 8  -1404356.00945  25018053.236    25018053.1914   25018063.1474
      2295.632        1788.804
 97  4 29 15 39  0.0000000  0  8 19  2 18 31  7 27 10 15             0.000464249
   1366963.057 9   1057433.28648  21577911.349    21577912.5784   21577920.3114
     -1758.804       -1370.497
   -947405.507 9   -560915.13148  21538583.730    21538584.4654   21538592.0324
       930.858         725.344
   3166957.149 9   2451812.81746  23826790.201    23826791.1344   23826799.7524
     -3764.459       -2933.345
   2365547.857 9   1830149.21547  23305676.761    23305677.8804   23305685.3364
     -2955.972       -2303.355
  -3016544.084 9  -2335046.57747  23195024.753    23195025.8914   23195034.6564
      3369.245        2625.386
   -762007.297 9   -514111.78248  20391532.444    20391533.3194   20391540.3754
       687.954         536.068
   1549736.292 9   1201198.29946  24708063.732    24708063.8954   24708073.2224
     -1974.151       -1538.299
  -1886460.117 8  -1457938.27145  25004968.651    25004967.7984   25004977.8124
      2288.130        1782.958
 97  4 29 15 39 30.0000000  0  8 19  2 18 31  7 27 10 15             0.000464636
   1419887.442 9   1098673.05248  21587982.562    21587983.7664   21587991.5104
     -1769.566       -1378.883
   -975224.571 9   -582592.31248  21533289.899    21533290.6644   21533298.2684
       923.516         719.623
   3279951.064 9   2539860.00446  23848292.372    23848293.1904   23848301.8504
     -3768.442       -2936.448
   2454417.635 9   1899398.35547  23322588.399    23322589.2954   23322596.7164
     -2968.862       -2313.399
  -3117539.695 9  -2413744.42847  23175806.006    23175807.0404   23175815.8684
      3363.581        2620.972
   -782473.967 9   -530059.83948  20387637.739    20387638.6354   20387645.7224
       676.227         526.930
   1609088.505 9   1247446.72146  24719358.205    24719358.3054   24719367.7534
     -1982.707       -1544.966
  -1955008.279 8  -1511352.36345  24991923.240    24991923.4064   24991933.5734
      2281.521        1777.809
 97  4 29 15 40  0.0000000  0  8 19  2 18 31  7 27 10 15             0.000465042
   1473150.137 9   1140176.43448  21598118.110    21598119.3154   21598127.0814
     -1781.349       -1388.064
  -1002792.203 9   -604073.57648  21528044.014    21528044.7294   21528052.3144
       914.164         712.336
   3393067.694 9   2628002.80346  23869817.968    23869818.6404   23869827.2914
     -3772.839       -2939.875
   2543696.313 9   1968966.11947  23339577.854    23339578.4584   23339585.9414
     -2983.233       -2324.597
  -3218349.135 9  -2492297.22047  23156622.448    23156623.6124   23156632.4894
      3356.907        2615.772
   -802558.336 9   -545710.00248  20383815.871    20383816.7314   20383823.7874
       662.454         516.198
   1668715.938 9   1293909.61346  24730704.904    24730705.0244   24730714.4844
     -1992.634       -1552.702
  -2023341.842 8  -1564599.21145  24978919.750    24978919.9544   24978930.0664
      2273.777        1771.774
 97  4 29 15 40 30.0000000  0  8 19  2 18 31  7 27 10 15             0.000465472
   1526759.819 9   1181950.19448  21608319.691    21608320.9054   21608328.7004
     -1792.276       -1396.579
  -1030087.053 9   -625342.28048  21522849.975    21522850.7174   21522858.3054
       905.817         705.831
   3506311.021 9   2716244.31946  23891367.296    23891368.1474   23891376.7764
     -3776.553       -2942.769
   2633400.191 9   2038865.19947  23356647.805    23356648.6014   23356656.0784
     -2996.918       -2335.261
  -3318956.663 9  -2570692.66947  23137477.578    23137478.6604   23137487.4734
      3350.438        2610.731
   -822227.578 9   -561036.68748  20380072.918    20380073.7934   20380080.8454
       649.183         505.857
   1728628.252 9   1340594.50746  24742105.824    24742106.0084   24742115.4794
     -2001.305       -1559.458
  -2091451.066 8  -1617671.26245  24965959.123    24965959.2194   24965969.2424
      2266.930        1766.439
 97  4 29 15 41  0.0000000  0  8 19  2 18 31  7 27 10 15             0.000465923
   1580692.531 9   1223975.66448  21618582.754    21618583.9964   21618591.7474
     -1803.132       -1405.038
  -1057132.501 9   -646416.64448  21517703.482    21517704.1734   21517711.7824
       897.373         699.252
   3619665.641 9   2804572.54746  23912938.008    23912938.8624   23912947.5064
     -3780.233       -2945.636
   2723511.447 9   2109081.73146  23373795.440    23373796.2564   23373803.6974
     -3010.425       -2345.786
  -3419368.708 9  -2648935.79647  23118369.874    23118370.8744   23118379.6044
      3343.795        2605.555
   -841508.147 9   -576060.51048  20376403.953    20376404.8564   20376411.8864
       636.692         496.124
   1788807.366 9   1387487.28246  24753557.455    24753557.7634   24753567.2134
     -2010.416       -1566.558
  -2159351.137 8  -1670580.36345  24953038.197    24953038.4244   24953048.1064
      2259.899        1760.960
 97  4 29 15 41 30.0000000  0  8 19  2 18 31  7 27 10 15             0.000466398
   1634948.523 9   1266253.04248  21628907.326    21628908.6344   21628916.3514
     -1813.752       -1413.313
  -1083922.181 9   -667291.71348  21512605.585    21512606.2594   21512613.8594
       888.637         692.444
   3733116.688 9   2892975.92346  23934527.256    23934528.0254   23934536.5694
     -3783.049       -2947.830
   2814018.087 9   2179606.34647  23391018.234    23391019.1234   23391026.5564
     -3023.268       -2355.793
  -3519578.339 9  -2727021.19447  23099300.591    23099301.5614   23099310.3274
      3336.902        2600.183
   -860435.922 9   -590809.43648  20372802.137    20372803.0484   20372810.0774
       625.269         487.223
   1849248.094 9   1434583.89146  24765059.068    24765059.3374   24765068.7604
     -2018.731       -1573.037
  -2227045.527 8  -1723329.17545  24940156.216    24940156.4194   24940166.2004
      2253.111        1755.671
 97  4 29 15 42  0.0000000  0  8 19  2 18 31  7 27 10 15             0.000466892
   1689525.433 9   1308780.48248  21639293.018    21639294.2934   21639302.0184
     -1824.600       -1421.766
  -1110434.658 9   -687950.77948  21507560.374    21507561.1164   21507568.6754
       878.966         684.909
   3846650.604 9   2981443.87446  23956131.990    23956132.8514   23956141.3894
     -3786.021       -2950.146
   2904913.970 9   2250434.26047  23408315.037    23408316.0684   23408323.4784
     -3036.554       -2366.146
  -3619576.501 9  -2804941.81247  23080271.474    23080272.5604   23080281.3174
      3329.708        2594.578
   -879014.556 9   -605286.29648  20369266.785    20369267.6474   20369274.6624
       613.296         477.893
   1909936.896 9   1481873.80946  24776607.828    24776608.0484   24776617.4884
     -2027.148       -1579.596
  -2294536.302 8  -1775919.32045  24927312.858    24927313.4504   24927323.2324
      2246.025        1750.149
 97  4 29 15 42 30.0000000  0  8 19  2 18 31  7 27 10 15             0.000467402
   1744406.864 9   1351545.21748  21649736.655    21649737.9074   21649745.6444
     -1833.518       -1428.715
  -1136685.853 9   -708406.24748  21502564.898    21502565.6624   21502573.2464
       871.794         679.320
   3960263.184 9   3069973.11846  23977751.739    23977752.6114   23977761.1264
     -3787.430       -2951.244
   2996197.314 9   2321564.09446  23425685.984    23425686.7824   23425694.2124
     -3048.364       -2375.349
  -3719372.312 9  -2882704.75747  23061281.045    23061282.0844   23061290.8474
      3324.002        2590.131
   -897248.015 9   -619494.18948  20365797.107    20365797.9614   20365804.9804
       602.995         469.866
   1970849.773 9   1529338.35246  24788199.088    24788199.4114   24788208.8994
     -2033.043       -1584.189
  -2361821.297 8  -1828349.12145  24914508.647    24914509.5544   24914519.3734
      2240.129        1745.555
 97  4 29 15 43  0.0000000  0  8 19  2 18 31  7 27 10 15             0.000467911
   1799576.373 9   1394534.42148  21660235.105    21660236.3574   21660244.1004
     -1844.164       -1437.011
  -1162702.008 9   -728678.56648  21497614.236    21497614.9684   21497622.5124
       862.985         672.456
   4073932.720 9   3158546.74946  23999382.246    23999383.1954   23999391.7594
     -3790.330       -2953.504
   3087844.039 9   2392977.09346  23443125.761    23443126.5554   23443134.0284
     -3061.149       -2385.311
  -3818983.379 9  -2960323.74247  23042325.653    23042326.6984   23042335.4434
      3316.882        2584.583
   -915157.131 9   -633449.34648  20362389.142    20362389.9934   20362397.0204
       591.141         460.629
   2031954.685 9   1576952.53246  24799827.057    24799827.3514   24799836.8254
     -2040.321       -1589.861
  -2428909.753 8  -1880625.76645  24901742.288    24901743.1094   24901752.7464
      2232.707        1739.772
 97  4 29 15 43 30.0000000  0  8 19  2 18 31  7 27 10 15             0.000468421
   1855044.799 9   1437756.54748  21670790.474    21670791.6694   21670799.4034
     -1852.902       -1443.820
  -1188469.090 9   -748756.80848  21492711.001    21492711.6594   21492719.1674
       855.532         666.648
   4187673.572 9   3247175.94146  24021026.492    24021027.4514   24021036.0084
     -3791.847       -2954.686
   3179853.360 9   2464672.62746  23460634.655    23460635.3394   23460642.8674
     -3072.122       -2393.861
  -3918387.114 9  -3037781.16147  23023409.617    23023410.7494   23023419.5094
      3310.636        2579.716
   -932717.490 9   -647132.74548  20359047.463    20359048.3754   20359055.3914
       580.125         452.045
   2093259.998 9   1624722.84446  24811493.112    24811493.3624   24811502.8894
     -2046.213       -1594.452
  -2495787.419 8  -1932738.16445  24889016.028    24889016.5564   24889026.2684
      2226.514        1734.946
 97  4 29 15 44  0.0000000  0  8 19  2 18 31  7 27 10 15             0.000468919
   1910774.005 9   1481181.87748  21681395.363    21681396.5674   21681404.3304
     -1862.371       -1451.198
  -1214012.939 9   -768661.10148  21487850.201    21487850.8314   21487858.3564
       847.714         660.556
   4301475.296 9   3335852.57746  24042682.412    24042683.3004   24042691.9204
     -3795.105       -2957.225
   3272190.478 9   2536623.58746  23478205.954    23478206.5554   23478214.0504
     -3083.725       -2402.903
  -4017595.686 9  -3115086.52647  23004530.928    23004531.9954   23004540.7064
      3303.264        2573.972
   -949937.648 9   -660551.05148  20355770.612    20355771.4974   20355778.5034
       568.160         442.722
   2154757.541 9   1672642.96246  24823195.690    24823195.9814   24823205.5674
     -2053.691       -1600.279
  -2562474.262 8  -1984701.85445  24876325.596    24876326.2674   24876336.2894
      2219.197        1729.244
 97  4 29 15 44 30.0000000  0  8 19  2 18 31  7 27 10 15             0.000469420
   1966783.864 9   1524825.89648  21692053.671    21692054.9034   21692062.6734
     -1872.356       -1458.979
  -1239352.732 9   -788406.38748  21483028.030    21483028.8214   21483036.3374
       841.023         655.343
   4415378.632 9   3424608.38646  24064357.477    24064358.3844   24064367.0604
     -3799.110       -2960.345
   3364854.316 9   2608829.13446  23495839.331    23495839.9324   23495847.4634
     -3094.447       -2411.257
  -4116587.149 9  -3192222.70647  22985693.613    22985694.5824   22985703.2214
      3295.612        2568.009
   -966822.783 9   -673708.30948  20352557.450    20352558.3924   20352565.3794
       557.027         434.047
   2216471.816 9   1720731.96846  24834939.716    24834939.7724   24834949.4254
     -2061.178       -1606.113
  -2628951.500 8  -2036502.23445  24863675.113    24863676.1204   24863685.8504
      2211.978        1723.619
 97  4 29 15 45  0.0000000  0  8 19  2 18 31  7 27 10 15             0.000469928
   2023098.256 9   1568707.21448  21702770.013    21702771.2564   21702779.0114
     -1882.327       -1466.748
  -1264488.387 9   -807992.60548  21478244.795    21478245.6694   21478253.1874
       834.265         650.077
   4529411.741 9   3513465.30546  24086057.194    24086058.2254   24086066.8234
     -3803.572       -2963.822
   3457827.221 9   2681275.51446  23513531.481    23513532.1294   23513539.6944
     -3104.407       -2419.018
  -4215350.198 9  -3269180.89947  22966899.517    22966900.6034   22966909.2274
      3288.142        2562.189
   -983380.540 9   -686610.46148  20349406.622    20349407.5614   20349414.5464
       546.255         425.653
   2278415.270 9   1768999.55646  24846727.231    24846727.3164   24846736.8974
     -2068.837       -1612.081
  -2695215.370 8  -2088136.33945  24851066.033    24851066.3844   24851076.1434
      2205.083        1718.246
 97  4 29 15 45 30.0000000  0  8 19  2 18 31  7 27 10 15             0.000470442
   2079703.657 9   1612815.29248  21713541.704    21713542.9614   21713550.7144
     -1891.652       -1474.014
  -1289421.150 9   -827420.72548  21473500.327    21473501.1304   21473508.6334
       827.687         644.951
   4643578.721 9   3602426.55546  24107782.615    24107783.4784   24107792.1304
     -3807.612       -2966.970
   3551101.260 9   2753956.54346  23531280.985    23531281.5674   23531289.1364
     -3114.256       -2426.693
  -4313885.990 9  -3345962.01047  22948148.788    22948149.8284   22948158.4744
      3280.852        2556.508
   -999611.419 9   -699257.90248  20346318.084    20346318.9424   20346325.9154
       535.514         417.284
   2340584.837 9   1817443.31946  24858557.763    24858557.8004   24858567.4574
     -2075.891       -1617.577
  -2761269.749 8  -2139607.22345  24838495.287    24838496.5894   24838506.3444
      2198.276        1712.942
 97  4 29 15 46  0.0000000  0  8 19  2 18 31  7 27 10 15             0.000470964
   2136614.643 9   1657161.48948  21724371.583    21724372.7934   21724380.5494
     -1901.675       -1481.825
  -1314145.759 9   -846686.64748  21468795.455    21468796.1884   21468803.7294
       821.507         640.135
   4757873.922 9   3691487.73246  24129532.165    24129533.2574   24129541.7944
     -3811.103       -2969.691
   3644691.837 9   2826884.22646  23549090.722    23549091.2614   23549098.8164
     -3124.328       -2434.541
  -4412201.401 9  -3422571.40447  22929440.036    22929441.0794   22929449.6124
      3274.467        2551.533
  -1015503.062 9   -711641.00748  20343294.014    20343294.8804   20343301.8514
       524.814         408.946
   2402970.106 9   1866055.18446  24870429.322    24870429.3994   24870438.9964
     -2082.042       -1622.370
  -2827101.757 8  -2190904.83745  24825967.658    24825969.1924   24825978.9694
      2191.389        1707.576
 97  4 29 15 46 30.0000000  0  8 19  2 18 31  7 27 10 15             0.000471472
   2193826.089 9   1701741.81248  21735258.635    21735259.8134   21735267.5574
     -1912.142       -1489.981
  -1338691.060 9   -865812.85348  21464124.693    21464125.3634   21464132.9114
       814.747         634.868
   4872256.060 9   3780616.65446  24151298.445    24151299.4784   24151308.1204
     -3814.014       -2971.959
   3738582.180 9   2900045.49446  23566957.266    23566958.0294   23566965.6024
     -3134.810       -2442.709
  -4510338.326 9  -3499041.71547  22910765.220    22910766.2614   22910774.7554
      3268.219        2546.664
  -1031076.100 9   -723775.84848  20340330.595    20340331.4474   20340338.3754
       513.267         399.948
   2465522.471 9   1914797.23246  24882332.668    24882332.7864   24882342.3404
     -2088.011       -1627.022
  -2892730.150 8  -2242043.80045  24813479.731    24813480.3604   24813490.1324
      2183.985        1701.806
 97  4 29 15 47  0.0000000  0  8 19  2 18 31  7 27 10 15             0.000471963
   2251332.382 9   1746551.88648  21746201.726    21746202.9084   21746210.6354
     -1921.554       -1497.315
  -1363023.685 9   -884773.32848  21459494.361    21459495.0094   21459502.5274
       807.336         629.093
   4986692.101 9   3869787.56146  24173074.987    24173075.9254   24173084.6264
     -3815.111       -2972.814
   3832783.391 9   2973448.99846  23584882.904    23584883.9454   23584891.5884
     -3145.450       -2451.000
  -4608296.888 9  -3575373.03147  22892124.327    22892125.3224   22892133.9144
      3262.172        2541.952
  -1046298.301 9   -735637.31048  20337433.922    20337434.7804   20337441.6764
       501.349         390.662
   2528249.898 9   1963675.70946  24894269.253    24894269.4844   24894278.9504
     -2094.092       -1631.760
  -2958143.374 8  -2293015.10145  24801031.650    24801032.6474   24801042.3324
      2176.717        1696.143
 97  4 29 15 47 30.0000000  0  8 19  2 18 31  7 27 10 15             0.000472519
   2309103.487 9   1791568.30948  21757195.199    21757196.4104   21757204.1364
     -1930.096       -1503.971
  -1387147.393 9   -903571.01348  21454903.771    21454904.4354   21454911.9414
       800.780         623.984
   5101128.525 9   3958958.74946  24194851.544    24194852.5274   24194861.1774
     -3814.073       -2972.005
   3927285.789 9   3047087.19246  23602865.961    23602867.2154   23602874.8194
     -3154.896       -2458.361
  -4706091.702 9  -3651576.75147  22873514.563    22873515.5594   22873524.2194
      3257.342        2538.189
  -1061178.354 9   -747232.16448  20334602.345    20334603.2154   20334610.1134
       490.571         382.263
   2591147.846 9   2012687.06046  24906238.435    24906238.5974   24906248.1404
     -2099.191       -1635.733
  -3023352.004 8  -2343826.98245  24788623.027    24788623.8794   24788633.5514
      2170.334        1691.169
 97  4 29 15 48  0.0000000  0  8 19  2 18 31  7 27 10 15             0.000472951
   2367164.636 9   1836810.74248  21768243.918    21768245.1254   21768252.8054
     -1940.722       -1512.251
  -1411046.040 9   -922193.32448  21450355.916    21450356.6414   21450364.1824
       792.274         617.356
   5215559.343 9   4048125.56946  24216627.235    24216628.1004   24216636.6164
     -3814.878       -2972.632
   4022101.439 9   3120969.47146  23620908.791    23620910.1144   23620917.6904
     -3166.300       -2467.247
  -4803718.145 9  -3727649.29747  22854936.892    22854937.9114   22854946.4264
      3250.836        2533.119
  -1075714.698 9   -758559.19148  20331836.216    20331837.0674   20331843.9424
       478.318         372.715
   2654234.768 9   2061845.62046  24918243.489    24918243.6054   24918253.1464
     -2106.868       -1641.715
  -3088341.143 8  -2394467.83545  24776256.267    24776256.7924   24776266.3874
      2162.007        1684.681
 97  4 29 15 48 30.0000000  0  8 19  2 18 31  7 27 10 15             0.000473381
   2425515.349 9   1882278.80948  21779347.700    21779348.9254   21779356.5984
     -1949.863       -1519.374
  -1434700.377 9   -940625.27248  21445854.663    21445855.3674   21445862.9154
       783.942         610.864
   5330005.522 9   4137304.38546  24238405.601    24238406.6274   24238415.0314
     -3815.589       -2973.186
   4117238.706 9   3195102.36246  23639012.955    23639014.1824   23639021.7874
     -3176.905       -2475.510
  -4901153.074 9  -3803572.60147  22836395.644    22836396.6724   22836405.1304
      3244.158        2527.915
  -1089896.799 9   -769610.18548  20329137.479    20329138.3304   20329145.1804
       466.391         363.422
   2717542.445 9   2111176.20846  24930290.575    24930290.7214   24930300.2244
     -2114.366       -1647.558
  -3153096.572 8  -2444926.57045  24763933.340    24763934.1864   24763943.7354
      2154.267        1678.650
 97  4 29 15 49  0.0000000  0  8 19  2 18 31  7 27 10 15             0.000473822
   2484139.695 9   1927960.09748  21790503.571    21790504.7824   21790512.4964
     -1958.229       -1525.893
  -1458097.666 9   -958856.92048  21441402.256    21441403.0194   21441410.5554
       776.233         604.857
   5444482.266 9   4226507.00946  24260189.887    24260190.9144   24260199.2204
     -3816.194       -2973.658
   4212692.486 9   3269481.89446  23657177.344    23657178.4214   23657186.1614
     -3186.543       -2483.021
  -4998381.940 9  -3879335.32347  22817893.596    22817894.5974   22817903.1324
      3237.926        2523.059
  -1103722.200 9   -780383.22348  20326506.626    20326507.4594   20326514.3114
       455.659         355.059
   2781070.350 9   2160678.49046  24942379.646    24942379.7054   24942389.2244
     -2120.493       -1652.332
  -3217617.101 8  -2495202.27545  24751655.466    24751656.4604   24751665.9184
      2147.303        1673.223
 97  4 29 15 49 30.0000000  0  8 19  2 18 31  7 27 10 15             0.000474269
   2543036.311 9   1973853.54648  21801711.248    21801712.4784   21801720.2054
     -1968.056       -1533.550
  -1481257.698 9   -976903.68948  21436995.020    21436995.7934   21437003.3344
       767.945         598.399
   5558997.720 9   4315739.79046  24281981.663    24281982.4254   24281990.8024
     -3818.204       -2975.224
   4308437.160 9   3344088.08946  23675397.075    23675398.0524   23675405.7154
     -3196.440       -2490.732
  -5095419.318 9  -3954948.84347  22799427.903    22799428.9674   22799437.5044
      3231.296        2517.893
  -1117220.922 9   -790901.71548  20323937.891    20323938.7624   20323945.6054
       444.404         346.289
   2844777.649 9   2210320.44846  24954502.658    24954502.7374   24954512.3364
     -2126.273       -1656.836
  -3281918.039 8  -2545306.85946  24739419.531    24739420.2944   24739429.7834
      2139.510        1667.151
 97  4 29 15 50  0.0000000  0  8 19  2 18 31  7 27 10 15             0.000474727
   2602223.191 9   2019973.16648  21812974.124    21812975.3764   21812983.1274
     -1977.620       -1541.003
  -1504171.579 9   -994758.65748  21432634.795    21432635.4484   21432642.9954
       759.657         591.941
   5673584.299 9   4405027.99146  24303786.556    24303787.4924   24303795.9634
     -3821.003       -2977.405
   4404481.487 9   3418927.77046  23693673.783    23693674.6714   23693682.4144
     -3206.605       -2498.653
  -5192249.273 9  -4030400.73447  22781001.817    22781002.8404   22781011.3404
      3223.952        2512.170
  -1130373.616 9   -801150.57648  20321435.008    20321435.9024   20321442.7384
       432.230         336.803
   2908650.887 8   2260091.78845  24966657.371    24966657.4354   24966667.1704
     -2132.000       -1661.299
  -3345983.075 8  -2595227.60746  24727228.489    24727229.1064   24727238.5784
      2131.421        1660.848
 97  4 29 15 50 30.0000000  0  8 19  2 18 31  7 27 10 15             0.000475187
   2661680.009 9   2066303.13548  21824288.360    21824289.6624   21824297.4234
     -1986.312       -1547.775
  -1526851.667 9  -1012431.44948  21428318.902    21428319.5824   21428327.1204
       752.479         586.347
   5788245.572 9   4494374.39146  24325605.913    24325606.8714   24325615.4054
     -3822.944       -2978.917
   4500804.791 9   3493984.84846  23712003.600    23712004.3924   23712012.1444
     -3215.030       -2505.218
  -5288862.238 9  -4105683.53447  22762617.012    22762617.9844   22762626.4344
      3216.992        2506.747
  -1143170.934 9   -811122.51248  20318999.784    20319000.6654   20319007.5104
       420.972         328.030
   2972672.405 8   2309978.67545  24978840.287    24978840.4294   24978850.1494
     -2135.953       -1664.379
  -3409814.818 8  -2644966.57946  24715081.400    24715082.4494   24715091.7324
      2123.988        1655.056
 97  4 29 15 51  0.0000000  0  8 19  2 18 31  7 27 10 15             0.000475637
   2721422.959 9   2112856.06748  21835657.037    21835658.3824   21835666.1334
     -1996.980       -1556.088
  -1549308.374 9  -1029930.17648  21424045.545    21424046.2274   21424053.7544
       744.295         579.970
   5902971.025 9   4583770.81046  24347437.713    24347438.5054   24347446.9014
     -3825.821       -2981.159
   4597393.635 9   3569248.83646  23730383.769    23730384.7114   23730392.4374
     -3224.718       -2512.767
  -5385254.425 9  -4180794.28947  22744274.146    22744275.1604   22744283.6124
      3208.703        2500.288
  -1155620.288 9   -820823.31048  20316630.732    20316631.6644   20316638.5034
       408.546         318.348
   3036818.666 7   2359962.74655  24991046.866    24991043.2744          0.0005
     -2140.926       -1668.254
  -3473411.939 8  -2694522.70545  24702979.760    24702980.3314   24702989.4954
      2115.317        1648.299
 97  4 29 15 51 30.0000000  0  8 19  2 18 31  7 27 10 15             0.000476073
   2781469.070 9   2159645.22848  21847083.443    21847084.7794   21847092.5674
     -2006.623       -1563.602
  -1571544.285 9  -1047256.85648  21419814.244    21419814.8894   21419822.3874
       737.595         574.749
   6017757.226 9   4673214.55646  24369280.654    24369281.6884   24369289.9704
     -3827.110       -2982.164
   4694257.407 9   3644727.05346  23748816.331    23748817.3454   23748825.1034
     -3233.654       -2519.730
  -5481417.628 9  -4255726.63347  22725974.736    22725975.9234   22725984.3524
      3201.492        2494.669
  -1167705.513 9   -830240.37048  20314331.019    20314331.9124   20314338.7734
       396.431         308.907
   3101108.86217   2410058.89854  25003281.308    25003282.4115          0.0005
     -2145.551       -1671.858
  -3536761.804 8  -2743886.14045  24690924.356    24690925.2764   24690934.3754
      2107.366        1642.103
 97  4 29 15 52  0.0000000  0  7 19  2 18 31  7 27 15                0.000476510
   2841796.454 9   2206653.55848  21858563.384    21858564.7284   21858572.5274
     -2015.913       -1570.841
  -1593583.661 9  -1064430.39348  21415620.337    21415620.9454   21415628.4564
       731.041         569.642
   6132583.402 9   4762689.46746  24391131.311    24391132.3314   24391140.7464
     -3828.595       -2983.321
   4791404.116 9   3720425.73246  23767302.744    23767303.7524   23767311.5724
     -3243.388       -2527.315
  -5577351.004 9  -4330479.88447  22707719.248    22707720.3574   22707728.8234
      3193.410        2488.371
  -1179417.833 9   -839366.85648  20312102.249    20312103.1404   20312110.0134
       383.805         299.069
  -3599865.757 8  -2793057.95145  24678916.221    24678916.8834   24678926.1424
      2098.933        1635.532
 97  4 29 15 52 30.0000000  0  7 19  2 18 31  7 27 15                0.000476930
   2902416.965 9   2253890.30548  21870099.147    21870100.4784   21870108.2544
     -2025.682       -1578.454
  -1615419.751 9  -1081445.52548  21411464.936    21411465.6794   21411473.1884
       724.605         564.627
   6247456.349 9   4852200.79446  24412991.186    24412991.9054   24413000.3784
     -3829.721       -2984.198
   4888841.700 9   3796351.07046  23785844.542    23785845.5814   23785853.3894
     -3252.965       -2534.778
  -5673039.022 9  -4405041.94847  22689510.303    22689511.4194   22689519.8964
      3185.556        2482.251
  -1190756.640 9   -848202.28548  20309944.604    20309945.4654   20309952.3334
       371.904         289.795
  -3662711.177 8  -2842028.29645  24666956.500    24666957.8344   24666966.8744
      2090.563        1629.010
 97  4 29 15 53  0.0000000  0  7 19  2 18 31  7 27 15                0.000477347
   2963333.096 9   2301357.39448  21881691.170    21881692.4614   21881700.2294
     -2035.444       -1586.060
  -1637066.407 9  -1098313.05348  21407345.845    21407346.4834   21407353.9694
       718.261         559.684
   6362365.396 9   4941740.27046  24434857.470    24434858.3974   24434866.8364
     -3831.038       -2985.224
   4986585.805 9   3872515.25946  23804444.645    23804445.7014   23804453.4974
     -3263.567       -2543.039
  -5768487.796 9  -4479417.58847  22671347.027    22671348.1124   22671356.5854
      3177.519        2475.989
  -1201728.204 9   -856751.55248  20307856.767    20307857.6024   20307864.4944
       359.263         279.945
  -3725296.529 8  -2890795.99046  24655046.684    24655048.0024   24655057.2224
      2081.621        1622.042
 97  4 29 15 53 30.0000000  0  7 19  2 18 31  7 27 15                0.000477758
   3024533.177 9   2349045.75148  21893337.156    21893338.4604   21893346.2324
     -2044.736       -1593.301
  -1658528.581 9  -1115036.81348  21403261.693    21403262.3704   21403269.8424
       712.371         555.094
   6477303.902 9   5031302.69146  24456729.795    24456730.5474   24456738.9804
     -3831.536       -2985.612
   5084639.261 9   3948920.50146  23823103.544    23823104.7474   23823112.5464
     -3273.544       -2550.814
  -5863700.493 9  -4553609.27747  22653228.552    22653229.7614   22653238.2084
      3169.728        2469.918
  -1212323.733 9   -865007.80748  20305840.501    20305841.3654   20305848.2504
       347.015         270.401
  -3787618.944 8  -2939358.78846  24643187.307    24643188.4234   24643197.5514
      2072.988        1615.315
 97  4 29 15 54  0.0000000  0  7 19  2 18 31  7 27 15                0.000478166
   3086013.865 9   2396952.75548  21905036.596    21905037.8714   21905045.6424
     -2053.769       -1600.339
  -1679810.823 9  -1131620.37748  21399211.826    21399212.4684   21399219.9754
       706.676         550.657
   6592257.942 9   5120877.23246  24478604.859    24478605.5874   24478614.2284
     -3831.733       -2985.766
   5182989.082 9   4025556.66446  23841818.854    23841820.1354   23841827.9714
     -3282.648       -2557.908
  -5958673.026 9  -4627613.82347  22635156.040    22635157.0654   22635165.5054
      3162.055        2463.939
  -1222562.258 9   -872985.88048  20303892.180    20303893.0514   20303899.9264
       335.886         261.729
  -3849678.467 8  -2987716.74046  24631377.510    24631378.8254   24631387.9894
      2064.654        1608.821
 97  4 29 15 54 30.0000000  0  7 19  2 18 31  7 27 15                0.000478576
   3147794.667 9   2445093.61348  21916793.100    21916794.4124   21916802.1774
     -2064.504       -1608.704
  -1700895.411 9  -1148049.92148  21395199.566    21395200.1994   21395207.7154
       699.290         544.901
   6707235.397 9   5210470.00446  24500484.348    24500485.1384   24500493.6674
     -3833.138       -2986.861
   5281623.367 9   4102414.49446  23860588.306    23860589.6654   23860597.5154
     -3292.804       -2565.821
  -6053397.384 9  -4701424.99147  22617130.667    22617131.6714   22617140.0234
      3153.186        2457.028
  -1232448.016 9   -880689.06948  20302011.002    20302011.8814   20302018.7484
       323.402         252.002
  -3911464.860 8  -3035861.86546  24619619.988    24619621.2814   24619630.3974
      2054.794        1601.138
 97  4 29 15 55  0.0000000  0  7 19  2 18 31  7 27 15                0.000478985
   3209865.481 9   2493460.45848  21928604.831    21928606.1104   21928613.8834
     -2073.966       -1616.077
  -1721783.100 9  -1164326.03248  21391224.686    21391225.3714   21391232.9314
       692.576         539.670
   6822230.276 9   5300076.36046  24522367.145    24522368.0024   24522376.4404
     -3833.714       -2987.310
   5380539.102 9   4179491.63846  23879411.234    23879412.7094   23879420.5344
     -3301.833       -2572.857
  -6147881.480 9  -4775048.95247  22599150.896    22599151.9464   22599160.2974
      3145.365        2450.934
  -1241978.092 9   -888115.10448  20300197.534    20300198.3824   20300205.2384
       311.429         242.672
  -3972978.850 8  -3083794.73546  24607915.649    24607915.5654   24607924.4604
      2045.760        1594.099
 97  4 29 15 55 30.0000000  0  7 19  2 18 31  7 27 15                0.000479395
   3272225.558 9   2542052.69548  21940471.649    21940472.8914   21940480.6594
     -2083.472       -1623.485
  -1742455.415 9  -1180434.33048  21387290.893    21387291.5954   21387299.1354
       685.408         534.084
   6937245.835 9   5389698.84846  24544253.860    24544254.6434   24544263.1714
     -3834.238       -2987.718
   5479723.164 9   4256777.87046  23898285.294    23898286.8254   23898294.6384
     -3310.807       -2579.850
  -6242128.260 9  -4848487.97847  22581216.235    22581217.3384   22581225.7514
      3137.495        2444.801
  -1251149.704 9   -895261.81848  20298452.202    20298453.0754   20298459.9564
       299.887         233.678
  -4034220.420 8  -3131515.33946  24596261.575    24596261.5954   24596270.4354
      2036.875        1587.175
 97  4 29 15 56  0.0000000  0  8 19  2 18 31  7 27 26 15             0.000479830
   3334870.319 9   2590866.77148  21952392.538    21952393.7964   21952401.5844
     -2092.807       -1630.759
  -1762902.390 9  -1196367.02848  21383399.859    21383400.6454   21383408.2104
       677.656         528.044
   7052295.206 9   5479347.67746  24566147.354    24566147.8824   24566156.3444
     -3835.784       -2988.923
   5579188.042 9   4334282.92346  23917212.837    23917214.3714   23917222.2384
     -3320.268       -2587.222
  -6336129.086 9  -4921735.35747  22563328.519    22563329.5774   22563337.9454
      3129.198        2438.336
  -1259967.335 9   -902132.69948  20296774.300    20296775.1754   20296782.0054
       287.789         224.251
   -252313.07419   -179224.98056  24102238.168    24102238.5575   24102247.0435
      2652.074        2066.551
  -4095184.594 8  -3179019.80346  24584660.549    24584660.3584   24584669.3554
      2027.379        1579.776
 97  4 29 15 56 30.0000000  0  8 19  2 18 31  7 27 26 15             0.000480351
   3397799.771 9   2639902.67848  21964367.553    21964368.8574   21964376.6594
     -2102.038       -1637.952
  -1783104.224 9  -1212108.70448  21379555.602    21379556.3984   21379563.9274
       669.584         521.754
   7167396.945 9   5569037.30946  24588050.262    24588051.1234   24588059.4994
     -3837.155       -2989.991
   5678944.374 9   4412015.08446  23936196.166    23936197.4064   23936205.3114
     -3329.878       -2594.710
  -6429874.197 9  -4994783.47647  22545489.389    22545490.4464   22545498.7654
      3120.855        2431.835
  -1268400.606 9   -908704.07448  20295169.516    20295170.3784   20295177.2144
       274.834         214.156
   -331719.096 9   -241099.79356  24087125.008    24087129.3084   24087135.9515
      2641.994        2058.697
  -4155859.128 8  -3226298.58746  24573114.077    24573114.3154   24573123.2644
      2017.898        1572.388
 97  4 29 15 57  0.0000000  0  8 19  2 18 31  7 27 26 15             0.000480831
   3461001.737 9   2689150.93148  21976394.469    21976395.8284   21976403.6254
     -2111.177       -1645.073
  -1803069.714 9  -1227666.22148  21375756.302    21375757.0944   21375764.6204
       661.736         515.638
   7282527.688 9   5658749.53846  24609958.908    24609959.7874   24609968.2164
     -3837.980       -2990.634
   5778987.177 9   4489970.45946  23955234.042    23955235.0224   23955242.8944
     -3339.157       -2601.941
  -6523370.311 9  -5067637.56947  22527697.559    22527698.7084   22527707.0494
      3112.394        2425.242
  -1276442.640 9   -914970.59848  20293639.132    20293640.0514   20293646.8584
       261.562         203.815
   -410817.644 9   -302735.02446  24072074.325    24072076.6655   24072083.9964
      2631.555        2050.562
  -4216254.157 8  -3273359.59246  24561620.820    24561621.4114   24561630.3734
      2008.605        1565.147
 97  4 29 15 57 30.0000000  0  8 19  2 18 31  7 27 26 15             0.000481284
   3524485.727 9   2738618.95048  21988475.112    21988476.4684   21988484.2744
     -2121.163       -1652.854
  -1822796.603 9  -1243037.81348  21372002.410    21372003.2094   21372010.7424
       653.353         509.106
   7397682.956 9   5748480.88046  24631871.851    24631873.1344   24631881.5214
     -3839.254       -2991.626
   5879304.836 9   4568140.01446  23974324.033    23974324.8904   23974332.6764
     -3348.761       -2609.424
  -6616601.495 9  -5140285.22547  22509956.373    22509957.4184   22509965.7794
      3102.735        2417.716
  -1284083.699 9   -920924.66948  20292185.049    20292185.9874   20292192.7914
       247.778         193.074
   -489593.924 9   -364119.11746  24057084.075    24057086.0644   24057093.4084
      2620.069        2041.612
  -4276363.053 9  -3320197.65446  24550182.820    24550183.0314   24550191.9264
      1998.493        1557.267
 97  4 29 15 58  0.0000000  0  8 19  2 18 31  7 27 26 15             0.000481723
   3588251.328 9   2788306.40048  22000609.379    22000610.6744   22000618.4914
     -2130.431       -1660.076
  -1842291.191 9  -1258228.39048  21368292.737    21368293.5154   21368301.0534
       645.897         503.296
   7512855.956 9   5838226.03946  24653788.914    24653789.9474   24653798.3634
     -3839.299       -2991.662
   5979877.325 9   4646508.13946  23993462.446    23993463.2474   23993471.0734
     -3356.432       -2615.401
  -6709551.618 9  -5212713.87847  22492268.551    22492269.5994   22492277.9644
      3093.631        2410.622
  -1291320.077 9   -926563.40748  20290808.010    20290808.9564   20290815.7454
       234.225         182.513
   -568036.588 9   -425243.26946  24042157.205    24042158.9614   24042166.3204
      2609.057        2033.031
  -4336178.896 8  -3366807.35046  24538799.719    24538800.3804   24538809.2414
      1988.847        1549.751
 97  4 29 15 58 30.0000000  0  8 19  2 18 31  7 27 26 15             0.000482149
   3652317.518 9   2838228.07848  22012800.785    22012802.1084   22012809.9204
     -2140.628       -1668.022
  -1861555.455 9  -1273239.49648  21364626.921    21364627.6464   21364635.1954
       638.504         497.536
   7628032.737 9   5927974.15046  24675706.459    24675707.3754   24675715.8104
     -3839.107       -2991.512
   6080681.206 9   4725056.56846  24012644.801    24012645.5914   24012653.4374
     -3363.942       -2621.254
  -6802221.265 9  -5284923.97347  22474634.047    22474635.1564   22474643.5034
      3084.396        2403.425
  -1298140.821 9   -931878.27448  20289510.094    20289511.0454   20289517.8294
       220.606         171.901
   -646141.343 9   -486104.11346  24027294.405    24027296.0424   24027303.4674
      2597.861        2024.307
  -4395695.939 9  -3413184.23446  24527474.486    24527474.5454   24527483.4364
      1978.924        1542.019
 97  4 29 15 59  0.0000000  0  8 19  2 18 31  7 27 26 15             0.000482570
   3716698.450 9   2888395.00948  22025052.063    22025053.4214   22025061.2584
     -2151.206       -1676.264
  -1880595.485 9  -1288075.87448  21361003.677    21361004.4304   21361011.9914
       631.102         491.768
   7743211.075 9   6017723.47946  24697624.218    24697625.1204   24697633.5634
     -3839.443       -2991.774
   6181711.719 9   4803781.60346  24031870.024    24031871.1244   24031878.9494
     -3371.341       -2627.019
  -6894601.838 9  -5356908.81747  22457054.693    22457055.7484   22457064.0744
      3074.539        2395.745
  -1304554.816 9   -936876.19448  20288289.576    20288290.5114   20288297.2714
       207.207         161.460
   -723903.049 9   -546697.63746  24012496.809    24012498.4444   24012505.9234
      2586.468        2015.430
  -4454906.869 9  -3459322.59846  24516206.863    24516207.1094   24516215.9404
      1968.581        1533.959
 97  4 29 15 59 30.0000000  0  8 19  2 18 31  7 27 26 15             0.000482990
   3781385.409 9   2938800.40048  22037361.633    22037362.9614   22037370.8194
     -2160.851       -1683.780
  -1899425.515 9  -1302748.61948  21357420.467    21357421.1954   21357428.7384
       624.572         486.679
   7858397.572 9   6107479.16946  24719543.532    24719544.3404   24719552.8984
     -3839.297       -2991.660
   6282957.556 9   4882674.41846  24051136.546    24051137.5364   24051145.4564
     -3378.175       -2632.344
  -6986695.518 9  -5428670.10047  22439529.770    22439530.9194   22439539.2084
      3065.459        2388.669
  -1310584.758 9   -941574.85148  20287142.131    20287143.0644   20287149.8104
       195.202         152.105
   -801330.980 9   -607031.06446  23997762.772    23997764.4314   23997771.9094
      2575.678        2007.022
  -4513813.459 9  -3505223.81446  24504996.983    24504997.5094   24505006.2974
      1958.888        1526.406
 97  4 29 16  0  0.0000000  0  8 19  2 18 31  7 27 26 15             0.000483405
   3846361.831 9   2989431.35148  22049726.236    22049727.6034   22049735.4554
     -2170.918       -1691.624
  -1918064.102 9  -1317272.18448  21353873.721    21353874.4024   21353881.9464
       618.067         481.611
   7973569.089 8   6197223.17745  24741460.060    24741460.7654   24741469.2794
     -3838.791       -2991.266
   6384416.655 9   4961733.41246  24070443.479    24070444.6104   24070452.5714
     -3385.926       -2638.384
  -7078521.878 9  -5500223.08647  22422055.768    22422056.9044   22422065.1784
      3056.466        2381.662
  -1316257.053 9   -945994.82448  20286062.708    20286063.6734   20286070.4224
       182.900         142.519
   -878433.017 9   -667110.55646  23983090.652    23983092.4214   23983099.9054
      2564.533        1998.337
  -4572428.335 9  -3550897.73246  24493842.236    24493843.4744   24493852.2204
      1948.795        1518.542
 97  4 29 16  0 30.0000000  0  8 19  2 18 31  7 27 26 15             0.000483831
   3911655.155 9   3040309.24148  22062151.196    22062152.5254   22062160.4004
     -2181.811       -1700.112
  -1936495.261 9  -1331634.11748  21350366.399    21350367.0724   21350374.6114
       610.557         475.759
   8088735.672 8   6286963.32546  24763375.155    24763376.1754   24763384.8444
     -3839.058       -2991.474
   6486128.805 9   5040989.59246  24089798.713    24089799.8664   24089807.7804
     -3395.002       -2645.456
  -7170070.258 9  -5571559.46947  22404634.712    22404635.8404   22404644.0884
      3046.655        2374.017
  -1321553.609 9   -950122.01448  20285054.848    20285055.7964   20285062.5304
       170.109         132.552
   -955190.934 9   -726921.90546  23968484.193    23968485.8594   23968493.3294
      2552.517        1988.974
  -4630730.456 9  -3596327.95446  24482747.619    24482748.9124   24482757.6524
      1937.922        1510.069
 97  4 29 16  1  0.0000000  0  8 19  2 18 31  7 27 26 15             0.000484275
   3977253.382 9   3091424.71348  22074634.179    22074635.4884   22074643.3434
     -2191.298       -1707.505
  -1954714.319 9  -1345830.77948  21346899.384    21346900.0994   21346907.6134
       604.152         470.768
   8203903.855 8   6376704.73645  24785290.940    24785292.1144   24785300.6364
     -3838.674       -2991.175
   6588098.995 9   5120446.84246  24109203.269    24109204.2304   24109212.1054
     -3403.037       -2651.717
  -7261337.599 9  -5642676.85447  22387267.082    22387268.2544   22387276.4924
      3038.021        2367.289
  -1326486.393 9   -953965.74348  20284116.145    20284117.1294   20284123.8614
       158.720         123.678
  -1031598.838 9   -786460.50546  23953944.311    23953945.8544   23953953.3694
      2541.359        1980.280
  -4688716.122 9  -3641511.57346  24471712.467    24471714.4854   24471723.3414
      1927.920        1502.275
 97  4 29 16  1 30.0000000  0  8 19  2 18 31  7 27 26 15             0.000484729
   4043140.895 9   3142765.60748  22087172.225    22087173.5124   22087181.3574
     -2201.124       -1715.162
  -1972733.515 9  -1359871.69848  21343470.460    21343471.1724   21343478.6884
       597.061         465.242
   8319060.018 8   6466436.78745  24807204.471    24807205.5664   24807214.1914
     -3838.268       -2990.858
   6690320.427 9   5200099.86146  24128655.330    24128656.3794   24128664.2584
     -3411.683       -2658.454
  -7352342.853 9  -5713590.01647  22369949.271    22369950.4574   22369958.7474
      3029.106        2360.342
  -1331062.433 9   -957531.48948  20283245.384    20283246.3454   20283253.0984
       146.398         114.076
  -1107660.066 9   -845728.98046  23939470.389    23939471.9074   23939479.4374
      2529.429        1970.984
  -4746394.583 9  -3686455.82246  24460735.611    24460738.7154   24460747.4754
      1917.386        1494.067
 97  4 29 16  2  0.0000000  0  8 19  2 18 31  7 27 26 15             0.000485197
   4109330.983 9   3194342.27248  22099767.782    22099769.1004   22099776.9644
     -2211.280       -1723.075
  -1990530.832 9  -1373739.72548  21340083.742    21340084.4474   21340091.9874
       589.737         459.535
   8434204.682 8   6556159.87845  24829115.929    24829116.8944   24829125.5384
     -3837.831       -2990.518
   6792801.174 9   5279954.95047  24148156.610    24148157.8964   24148165.7494
     -3420.166       -2665.064
  -7443079.470 9  -5784293.86148  22352682.718    22352683.8744   22352692.0994
      3020.221        2353.419
  -1335254.397 9   -960797.95748  20282447.691    20282448.6584   20282455.3934
       133.246         103.828
  -1183361.425 9   -904717.03446  23925064.948    23925066.4324   23925073.9714
      2517.746        1961.880
  -4803749.092 9  -3731147.64746  24449822.577    24449824.5744   24449833.2624
      1906.573        1485.641
 97  4 29 16  2 30.0000000  0  8 19  2 18 31  7 27 26 15             0.000485666
   4175821.117 9   3246152.73748  22112420.461    22112421.7944   22112429.6054
     -2221.042       -1730.682
  -2008101.502 9  -1387431.15048  21336740.128    21336740.8484   21336748.3664
       581.953         453.470
   8549348.035 8   6645881.95445  24851026.990    24851028.0134   24851036.6164
     -3838.165       -2990.778
   6895527.285 9   5360001.24047  24167704.734    24167706.1144   24167713.8734
     -3428.042       -2671.202
  -7533547.414 9  -5854788.34048  22335467.217    22335468.4394   22335476.6264
      3011.200        2346.390
  -1339051.776 9   -963756.95948  20281725.092    20281726.0614   20281732.7924
       120.210          93.670
  -1258715.282 9   -963434.31646  23910725.615    23910727.0624   23910734.6014
      2506.029        1952.750
  -4860778.378 9  -3775586.03946  24438971.201    24438972.3214   24438980.9654
      1895.669        1477.145
 97  4 29 16  3  0.0000000  0  8 19  2 18 31  7 27 26 15             0.000486139
   4242600.235 9   3298188.39048  22125128.133    22125129.4494   22125137.2404
     -2230.673       -1738.187
  -2025444.267 9  -1400944.97848  21333439.890    21333440.6334   21333448.1254
       574.620         447.756
   8664504.646 8   6735614.35245  24872940.543    24872941.6154   24872950.2024
     -3838.477       -2991.021
   6998489.758 9   5440231.69146  24187298.188    24187299.2594   24187307.0394
     -3435.929       -2677.347
  -7623745.878 9  -5925072.83648  22318303.041    22318304.2234   22318312.4294
      3002.319        2339.469
  -1342452.833 9   -966407.13948  20281077.904    20281078.8774   20281085.5864
       106.798          83.219
  -1333711.936 9  -1021873.26547  23896454.277    23896455.6814   23896463.2164
      2494.043        1943.410
  -4917481.703 9  -3819770.45146  24428179.304    24428182.0154   24428190.6904
      1884.855        1468.718
 97  4 29 16  3 30.0000000  0  8 19  2 18 31  7 27 26 15             0.000486615
   4309673.106 9   3350452.93948  22137891.747    22137893.0464   22137900.8284
     -2240.540       -1745.875
  -2042560.228 9  -1414282.07748  21330182.845    21330183.5874   21330191.0584
       566.633         441.532
   8779672.018 8   6825355.13145  24894856.089    24894857.3284   24894865.7644
     -3839.133       -2991.532
   7101695.591 9   5520651.78946  24206937.992    24206938.7174   24206946.4974
     -3444.330       -2683.894
  -7713667.362 9  -5995141.50348  22301191.676    22301192.7544   22301200.9314
      2992.498        2331.817
  -1345433.971 9   -968730.10748  20280510.670    20280511.6134   20280518.3044
        92.203          71.846
  -1408342.228 9  -1080026.73147  23882252.642    23882254.0404   23882261.5184
      2481.379        1933.542
  -4973854.025 9  -3863696.93146  24417451.750    24417454.7274   24417463.3714
      1873.378        1459.775
 97  4 29 16  4  0.0000000  0  8 19  2 18 31  7 27 26 15             0.000487093
   4377024.703 9   3402934.67548  22150708.321    22150709.6034   22150717.4204
     -2249.715       -1753.025
  -2059455.148 9  -1427446.94148  21326967.799    21326968.5934   21326976.0274
       559.650         436.091
   8894849.122 8   6915103.48745  24916773.840    24916774.8144   24916783.2964
     -3839.486       -2991.807
   7205131.719 9   5601251.32746  24226621.276    24226621.9874   24226629.7744
     -3451.685       -2689.625
  -7803304.080 9  -6064988.28948  22284134.248    22284135.3914   22284143.6024
      2983.067        2324.468
  -1347996.256 9   -970726.69948  20280023.152    20280024.0494   20280030.7294
        78.493          61.163
  -1482603.343 9  -1137892.53647  23868121.161    23868122.6684   23868130.0794
      2469.190        1924.044
  -5029894.752 9  -3907365.03146  24406787.426    24406790.5394   24406799.1544
      1862.420        1451.236
 97  4 29 16  4 30.0000000  0  8 19  2 18 31  7 27 26 15             0.000487601
   4444671.446 9   3455646.39648  22163581.033    22163582.3404   22163590.1514
     -2259.533       -1760.675
  -2076124.370 9  -1440435.93548  21323795.747    21323796.5364   21323803.9684
       552.123         430.226
   9010053.851 8   7004873.37045  24938696.388    24938697.5494   24938705.9234
     -3840.234       -2992.390
   7308811.219 9   5682040.50546  24246350.785    24246351.6294   24246359.3824
     -3459.815       -2695.960
  -7892632.331 9  -6134594.70448  22267135.660    22267136.7964   22267144.9964
      2972.539        2316.264
  -1350126.433 9   -972386.58548  20279617.781    20279618.6864   20279625.3504
        64.045          49.905
  -1556470.244 9  -1195451.16747  23854064.836    23854066.2734   23854073.6534
      2455.643        1913.488
  -5085585.630 9  -3950760.52146  24396190.761    24396192.8704   24396201.4884
      1850.699        1442.103
 97  4 29 16  5  0.0000000  0  8 19  2 18 31  7 27 26 15             0.000488097
   4512595.361 9   3508574.09348  22176506.627    22176507.9104   22176515.6994
     -2268.522       -1767.679
  -2092591.618 9  -1453267.54848  21320662.139    21320662.9154   21320670.3464
       545.898         425.375
   9125255.408 8   7094640.76645  24960618.671    24960619.7594   24960628.1454
     -3839.502       -2991.820
   7412719.433 9   5763007.92246  24266123.831    24266124.8624   24266132.5034
     -3467.180       -2701.699
  -7981660.466 9  -6203967.26148  22250194.261    22250195.3254   22250203.5054
      2962.820        2308.691
  -1351839.474 9   -973721.42348  20279291.777    20279292.7474   20279299.3634
        50.432          39.298
  -1629942.847 9  -1252702.54847  23840083.509    23840084.8944   23840092.2744
      2442.929        1903.581
  -5140938.276 9  -3993892.47146  24385658.165    24385659.6514   24385668.2134
      1839.705        1433.536
 97  4 29 16  5 30.0000000  0  8 19  2 18 31  7 27 26 15             0.000488600
   4580795.580 9   3561717.09548  22189484.733    22189486.0134   22189493.8224
     -2277.994       -1775.060
  -2108859.184 9  -1465943.56048  21317566.491    21317567.2704   21317574.7024
       538.778         419.827
   9240437.787 8   7184393.27045  24982537.359    24982538.2154   24982546.5634
     -3839.210       -2991.592
   7516856.094 9   5844153.32446  24285940.672    24285941.4484   24285949.0814
     -3475.033       -2707.818
  -8070380.615 9  -6273099.82948  22233311.307    22233312.3964   22233320.5904
      2952.061        2300.307
  -1353133.347 9   -974729.64048  20279045.594    20279046.5384   20279053.1594
        36.096          28.127
  -1703028.379 9  -1309652.30547  23826175.833    23826177.1994   23826184.6044
      2429.707        1893.278
  -5195951.078 9  -4036759.61046  24375188.133    24375190.9564   24375199.6734
      1827.969        1424.391
 97  4 29 16  6  0.0000000  0  8 19  2 18 31  7 27 26 15             0.000489111
   4649281.018 9   3615082.34548  22202517.060    22202518.3994   22202526.2294
     -2287.730       -1782.647
  -2124922.825 9  -1478460.67348  21314509.592    21314510.4144   21314517.8364
       532.231         414.725
   9355600.390 8   7274130.28945  25004452.064    25004452.9254   25004461.3824
     -3838.188       -2990.796
   7621213.610 9   5925470.85246  24305799.482    24305800.0144   24305807.6674
     -3482.218       -2713.417
  -8158795.012 9  -6341994.16048  22216486.553    22216487.7164   22216495.8694
      2942.201        2292.624
  -1354017.768 9   -975418.80048  20278877.336    20278878.2494   20278884.8614
        22.830          17.790
  -1775738.625 9  -1366309.63347  23812339.578    23812340.8914   23812348.2804
      2417.850        1884.039
  -5250621.382 9  -4079359.86746  24364784.295    24364787.5294   24364796.2384
      1816.821        1415.705
 97  4 29 16  6 30.0000000  0  8 19  2 18 31  7 27 26 15             0.000489631
   4718080.327 9   3668692.17248  22215609.249    22215610.5094   22215618.3314
     -2298.916       -1791.363
  -2140769.231 9  -1490808.50848  21311494.136    21311494.9064   21311502.3424
       523.922         408.251
   9470742.390 8   7363851.27545  25026362.641    25026363.8514   25026372.3964
     -3838.079       -2990.711
   7725812.969 9   6006976.81747  24325703.738    24325704.6394   24325712.3474
     -3491.276       -2720.475
  -8246892.618 9  -6410641.63148  22199722.313    22199723.3254   22199731.4544
      2930.706        2283.667
  -1354478.092 9   -975777.49548  20278789.713    20278790.6654   20278797.2604
         7.768           6.053
  -1848081.696 9  -1422680.84247  23798573.191    23798574.4814   23798581.8854
      2404.806        1873.875
  -5304941.145 9  -4121686.97946  24354449.127    24354450.8644   24354459.5484
      1804.215        1405.882
 97  4 29 16  7  0.0000000  0  8 19  2 18 31  7 27 26 15             0.000490161
   4787194.236 9   3722547.14348  22228761.206    22228762.5074   22228770.3094
     -2309.209       -1799.384
  -2156378.837 9  -1502971.83248  21308523.673    21308524.5004   21308531.9714
       516.275         402.292
   9585861.395 8   7453554.39645  25048269.304    25048270.2484   25048278.8804
     -3837.102       -2989.950
   7830664.021 9   6088678.89546  24345656.201    24345657.1464   24345664.8454
     -3499.260       -2726.696
  -8334662.144 9  -6479033.45948  22183020.192    22183021.3224   22183029.4554
      2920.140        2275.434
  -1354510.457 9   -975802.71848  20278783.586    20278784.5054   20278791.1014
        -6.188          -4.822
  -1920056.008 9  -1478764.71147  23784876.885    23784878.1904   23784885.5884
      2393.149        1864.791
  -5358900.844 9  -4163733.50346  24344181.064    24344182.6574   24344191.4744
      1792.547        1396.790
 97  4 29 16  7 30.0000000  0  8 19  2 18 31  7 27 26 15             0.000490690
   4856626.593 9   3776650.24948  22241973.751    22241975.0894   22241982.8664
     -2319.920       -1807.730
  -2171757.175 9  -1514954.94748  21305597.304    21305598.1224   21305605.6134
       508.574         396.291
   9700950.394 8   7543234.09745  25070169.901    25070171.1444   25070179.5244
     -3836.143       -2989.202
   7935755.289 9   6170568.17646  24365654.590    24365655.3654   24365663.1254
     -3507.230       -2732.906
  -8422108.517 9  -6547173.48548  22166379.644    22166380.8424   22166388.9484
      2909.271        2266.964
  -1354112.143 9   -975492.34648  20278859.398    20278860.3134   20278866.9234
       -20.747         -16.166
  -1991679.364 9  -1534575.11047  23771247.370    23771248.7434   23771256.1304
      2381.304        1855.562
  -5412500.986 9  -4205499.85846  24333981.707    24333982.8054   24333991.7064
      1780.290        1387.239
 97  4 29 16  8  0.0000000  0  8 19  2 18 31  7 27 26 15             0.000491224
   4926387.090 9   3831009.04948  22255248.706    22255250.0694   22255257.9054
     -2330.202       -1815.742
  -2186899.070 9  -1526753.81648  21302715.904    21302716.7154   21302724.2054
       501.392         390.695
   9816022.771 8   7632900.80645  25092067.608    25092068.6044   25092077.2784
     -3834.806       -2988.160
   8041084.463 9   6252642.82746  24385698.199    24385698.8904   24385706.6434
     -3514.409       -2738.501
  -8509221.019 9  -6615053.34348  22149802.748    22149803.8964   22149812.0134
      2898.563        2258.620
  -1353272.591 9   -974838.15248  20279019.166    20279020.0614   20279026.6844
       -34.788         -27.108
  -2062939.620 9  -1590102.56947  23757686.969    23757688.3704   23757695.7794
      2369.697        1846.517
  -5465724.771 9  -4246972.92846  24323853.906    24323854.6304   24323863.5674
      1768.335        1377.923
 97  4 29 16  8 30.0000000  0  8 19  2 18 31  7 27 26 15             0.000491754
   4996442.194 9   3885597.42448  22268579.717    22268581.1354   22268588.9734
     -2340.065       -1823.427
  -2201832.368 9  -1538390.14248  21299874.226    21299874.9984   21299882.4794
       494.073         384.992
   9931045.786 8   7722529.06345  25113955.497    25113956.6664   25113965.4114
     -3833.458       -2987.110
   8146621.516 9   6334879.47646  24405781.148    24405781.9844   24405789.7114
     -3521.311       -2743.879
  -8596009.488 9  -6682680.70248  22133287.430    22133288.5644   22133296.7034
      2887.403        2249.924
  -1352011.491 9   -973855.47948  20279259.103    20279260.0454   20279266.6564
       -49.134         -38.286
  -2133846.285 9  -1645354.50547  23744193.830    23744195.2964   23744202.6854
      2357.295        1836.853
  -5518586.829 9  -4288164.11746  24313794.419    24313795.3704   24313804.2724
      1755.712        1368.087
 97  4 29 16  9  0.0000000  0  8 19  2 18 31  7 27 26 15             0.000492273
   5066773.496 9   3940401.01248  22281963.376    22281964.7434   22281972.5854
     -2349.175       -1830.526
  -2216574.442 9  -1549877.46248  21297068.868    21297069.6424   21297077.1284
       488.301         380.494
  10046006.279 8   7812108.64345  25135832.078    25135833.0664   25135841.6494
     -3831.185       -2985.339
   8252325.362 9   6417246.06546  24425895.825    24425896.7514   24425904.4954
     -3526.151       -2747.650
  -8682493.064 9  -6750070.49548  22116830.061    22116831.2714   22116839.3694
      2877.672        2242.342
  -1350352.668 9   -972562.89048  20279574.763    20279575.7134   20279582.3374
       -62.089         -48.381
  -2204403.704 9  -1700334.30547  23730767.163    23730768.6784   23730776.0474
      2346.058        1828.097
  -5571093.191 9  -4329078.13046  24303803.674    24303803.7724   24303812.6224
      1744.247        1359.154
 97  4 29 16  9 30.0000000  0  8 19  2 18 31  7 27 26 15             0.000492790
   5137402.365 9   3995436.46748  22295403.566    22295404.9704   22295412.8254
     -2359.119       -1838.274
  -2231123.018 9  -1561214.00948  21294300.335    21294301.1464   21294308.6024
       481.773         375.408
  10160926.599 7   7901656.93045  25157700.513    25157701.7714   25157710.0584
     -3830.047       -2984.452
   8358196.389 9   6499742.93146  24446042.511    24446043.4224   24446051.1434
     -3531.911       -2752.138
  -8768658.113 9  -6817212.07148  22100433.369    22100434.5964   22100442.6864
      2866.965        2233.999
  -1348283.833 9   -970950.81648  20279968.457    20279969.3924   20279976.0304
       -75.504         -58.834
  -2274596.362 9  -1755029.87747  23717409.925    23717411.4724   23717418.8034
      2333.475        1818.292
  -5623228.855 9  -4369703.27946  24293882.355    24293882.6894   24293891.5454
      1731.707        1349.382
 97  4 29 16 10  0.0000000  0  8 19  2 18 31  7 27 26 15             0.000493318
   5208323.988 9   4050700.04447  22308899.508    22308900.9434   22308908.7964
     -2369.257       -1846.174
  -2245475.931 9  -1572398.09048  21291568.988    21291569.8634   21291577.3024
       474.873         370.031
  10275812.33817   7991178.22555  25179562.804    25179564.3015          0.0005
     -3828.874       -2983.538
   8464241.900 9   6582375.77246  24466222.152    24466223.1924   24466230.9714
     -3538.116       -2756.974
  -8854513.504 9  -6884112.35548  22084095.723    22084096.8584   22084104.9734
      2856.394        2225.762
  -1345833.035 9   -969041.10548  20280434.842    20280435.7674   20280442.4324
       -88.143         -68.683
  -2344412.089 9  -1809431.74247  23704124.527    23704126.0144   23704133.2804
      2320.622        1808.277
  -5674995.038 9  -4410040.50746  24284030.835    24284031.9454   24284040.7794
      1719.139        1339.589
 97  4 29 16 10 30.0000000  0  8 19  2 18 31  7 27 26 15             0.000493867
   5279548.769 9   4106199.84948  22322453.163    22322454.5834   22322462.4734
     -2379.357       -1854.044
  -2259621.609 9  -1583420.69148  21288877.242    21288878.0604   21288885.4754
       467.909         364.604
  10390662.33616   8080671.65254  25201418.119           0.0005          0.0005
     -3828.263       -2983.062
   8570472.340 9   6665152.71446  24486437.063    24486438.2134   24486445.9824
     -3544.337       -2761.821
  -8940052.930 9  -6950766.43648  22067818.089    22067819.2724   22067827.3274
      2845.973        2217.641
  -1343005.005 9   -966837.44448  20280972.991    20280973.9294   20280980.5924
      -100.711         -78.476
  -2413841.195 9  -1863532.34447  23690912.622    23690914.1144   23690921.3074
      2307.626        1798.150
  -5726385.265 9  -4450084.77946  24274252.020    24274252.6824   24274261.5374
      1706.548        1329.778
 97  4 29 16 11  0.0000000  0  8 19  2 18 31  7 27 26 15             0.000494442
   5351071.774 9   4161932.03747  22336063.562    22336064.9454   22336072.8944
     -2389.037       -1861.587
  -2273568.574 9  -1594288.45048  21286223.221    21286224.0514   21286231.4524
       461.428         359.554
  10505482.94616   8170142.24754  25223268.611           0.0005          0.0005
     -3827.200       -2982.234
   8676889.901 9   6748075.45146  24506687.734    24506688.8314   24506696.5904
     -3550.740       -2766.810
  -9025283.096 9  -7017179.53348  22051599.339    22051600.4844   22051608.5374
      2835.574        2209.538
  -1339801.283 9   -964341.04648  20281582.672    20281583.5894   20281590.2654
      -113.536         -88.470
  -2482871.499 9  -1917322.18847  23677776.703    23677778.1224   23677785.2454
      2294.080        1787.595
  -5777402.321 9  -4489838.26446  24264544.307    24264544.3924   24264553.3004
      1694.204        1320.159
 97  4 29 16 11 30.0000000  0  7 19  2 31  7 27 26 15                0.000495043
   5422882.880 9   4217888.71947  22349728.772    22349730.1724   22349738.1064
     -2398.171       -1868.705
  -2287313.911 9  -1604999.09448  21283607.592    21283608.4094   21283615.8304
       455.015         354.557
   8783516.303 9   6831160.92246  24526978.063    24526979.1384   24526986.9374
     -3557.638       -2772.185
  -9110189.377 9  -7083340.25748  22035442.232    22035443.3474   22035451.3904
      2825.039        2201.329
  -1336203.111 9   -961537.27948  20282267.389    20282268.3224   20282274.9744
      -126.468         -98.546
  -2551486.166 9  -1970788.15747  23664719.778    23664721.1564   23664728.2974
      2280.256        1776.823
  -5828042.479 9  -4529298.07446  24254907.528    24254907.8264   24254916.7674
      1681.868        1310.546
 97  4 29 16 12  0.0000000  0  7 19  2 31  7 27 26 15                0.000495670
   5494974.907 9   4274064.30047  22363447.523    22363448.8624   22363456.8104
     -2407.237       -1875.769
  -2300858.397 9  -1615553.23548  21281030.202    21281031.0144   21281038.4174
       448.592         349.552
   8890354.060 9   6914411.06446  24547308.729    24547309.7354   24547317.5394
     -3563.967       -2777.117
  -9194767.220 9  -7149245.04648  22019347.642    22019348.7294   22019356.7814
      2814.047        2192.764
  -1332188.380 9   -958408.92448  20283031.405    20283032.3264   20283038.9864
      -140.681        -109.622
  -2619671.758 9  -2023919.76947  23651744.518    23651745.8684   23651753.0324
      2266.137        1765.821
  -5878298.168 9  -4568458.29846  24245344.262    24245344.5024   24245353.3424
      1669.249        1300.714
 97  4 29 16 12 30.0000000  0  7 19  2 31  7 27 26 15                0.000496303
   5567335.270 9   4330448.97847  22377217.238    22377218.6114   22377226.5934
     -2416.224       -1882.772
  -2314210.689 9  -1625957.61148  21278489.356    21278490.1494   21278497.5724
       442.061         344.463
   8997372.739 9   6997802.22646  24567674.236    24567674.7654   24567682.5734
     -3570.170       -2781.951
  -9279010.180 9  -7214888.89048  22003316.760    22003317.8024   22003325.8334
      2802.758        2183.967
  -1327726.406 9   -954932.06148  20283880.481    20283881.4214   20283888.0764
      -156.335        -121.819
  -2687429.184 9  -2076717.74147  23638850.759    23638852.0594   23638859.2314
      2251.591        1754.486
  -5928174.039 9  -4607322.57946  24235852.842    24235853.3894   24235862.1734
      1656.423        1290.719
 97  4 29 16 13  0.0000000  0  7 19  2 31  7 27 26 15                0.000496943
   5639987.849 9   4387061.35147  22391042.586    22391043.9884   22391051.9634
     -2426.686       -1890.924
  -2327337.885 9  -1636186.59048  21275991.363    21275992.1284   21275999.5544
       433.700         337.948
   9104597.390 9   7081353.84946  24588078.349    24588078.9844   24588086.7794
     -3577.700       -2787.818
  -9362895.803 9  -7280254.29648  21987353.788    21987354.8834   21987362.9034
      2790.242        2174.215
  -1322763.848 9   -951065.13948  20284824.838    20284825.7774   20284832.4354
      -173.843        -135.462
  -2754731.266 9  -2129160.90847  23626043.607    23626044.9104   23626052.0344
      2236.090        1742.408
  -5977642.900 9  -4645869.70446  24226439.575    24226439.7264   24226448.5074
      1642.185        1279.625
 97  4 29 16 13 30.0000000  0  7 19  2 31  7 27 26 15                0.000497567
   5712921.401 9   4443892.67347  22404921.496    22404922.8314   22404930.7714
     -2435.954       -1898.146
  -2340245.238 9  -1646244.26148  21273535.226    21273535.9684   21273543.3564
       426.451         332.299
   9212012.224 9   7165053.70246  24608518.924    24608519.3594   24608527.2324
     -3583.616       -2792.428
  -9446445.416 9  -7345357.87048  21971454.747    21971455.9144   21971463.9464
      2779.414        2165.777
  -1317318.559 9   -946822.05948  20285861.039    20285861.9904   20285868.6494
      -189.378        -147.567
  -2821618.602 9  -2181280.90247  23613315.336    23613316.6584   23613323.8044
      2222.741        1732.006
  -6026720.652 9  -4684112.07446  24217099.839    24217100.4614   24217109.3164
      1629.259        1269.552
 97  4 29 16 14  0.0000000  0  7 19  2 31  7 27 26 15                0.000498171
   5786133.588 9   4500941.11047  22418853.311    22418854.6624   22418862.6244
     -2445.266       -1905.402
  -2352932.714 9  -1656130.59948  21271120.909    21271121.6404   21271129.0334
       418.906         326.420
   9319602.702 9   7248890.38446  24628992.737    24628993.1524   24629001.0554
     -3589.487       -2797.003
  -9529672.459 9  -7410210.09548  21955617.188    21955618.3114   21955626.3624
      2768.569        2157.326
  -1311412.177 9   -942219.68648  20286984.956    20286985.9594   20286992.6184
      -204.531        -159.375
  -2888105.866 9  -2233089.15947  23600663.161    23600664.5314   23600671.7184
      2209.443        1721.644
  -6075410.628 9  -4722052.28546  24207834.065    24207835.0384   24207843.8874
      1616.290        1259.447
 97  4 29 16 14 30.0000000  0  7 19  2 31  7 27 26 15                0.000498782
   5859628.219 9   4558209.62447  22432838.833    22432840.2454   22432848.2144
     -2454.457       -1912.564
  -2365382.925 9  -1665832.05448  21268751.683    21268752.4734   21268759.8394
       411.172         320.394
   9427379.334 9   7332872.13046  24649501.984    24649502.4154   24649510.3154
     -3595.871       -2801.977
  -9612566.115 9  -7474802.53248  21939843.039    21939844.1364   21939852.1674
      2757.600        2148.779
  -1305055.748 9   -937266.62048  20288194.562    20288195.5764   20288202.2244
      -219.011        -170.658
  -2954191.891 9  -2284584.74947  23588087.401    23588088.7844   23588095.9664
      2196.473        1711.537
  -6123702.746 9  -4759682.47646  24198644.394    24198645.2914   24198654.1714
      1603.096        1249.166
 97  4 29 16 15  0.0000000  0  7 19  2 31  7 27 26 15                0.000499375
   5933406.634 9   4615699.28547  22446878.427    22446879.8354   22446887.8044
     -2463.876       -1919.903
  -2377601.578 9  -1675353.07648  21266426.538    21266427.3354   21266434.7264
       403.771         314.627
   9535353.946 8   7417008.14945  24670048.703    24670049.2874   24670057.1374
     -3602.212       -2806.918
  -9695121.572 9  -7539131.43648  21924133.168    21924134.3514   21924142.3894
      2746.154        2139.860
  -1298276.234 9   -931983.88048  20289484.689    20289485.6784   20289492.3194
      -232.742        -181.357
  -3019893.539 9  -2335780.83147  23575584.734    23575586.1294   23575593.3164
      2183.707        1701.590
  -6171591.204 9  -4796998.12446  24189531.950    24189532.4184   24189541.3064
      1589.608        1238.656
 97  4 29 16 15 30.0000000  0  7 19  2 31  7 27 26 15                0.000499971
   6007457.218 9   4673401.02147  22460969.791    22460971.2344   22460979.1744
     -2473.129       -1927.114
  -2389612.153 9  -1684711.96548  21264140.996    21264141.8034   21264149.1854
       396.747         309.154
   9643507.763 8   7501283.82755  24690628.941    24690628.6874          0.0005
     -3608.092       -2811.500
  -9777334.713 9  -7603193.60048  21908488.567    21908489.7124   21908497.7874
      2734.477        2130.761
  -1291099.673 9   -926391.75748  20290850.341    20290851.3374   20290857.9644
      -246.026        -191.709
  -3085211.811 9  -2386678.18047  23563155.034    23563156.4804   23563163.6214
      2170.467        1691.273
  -6219080.491 9  -4834002.73446  24180495.230    24180495.5014   24180504.3134
      1576.052        1228.092
 97  4 29 16 16  0.0000000  0  7 19  2 31  7 27 26 15                0.000500583
   6081791.025 9   4731323.44247  22475115.062    22475116.4964   22475124.4444
     -2482.484       -1934.403
  -2401412.214 9  -1693906.81448  21261895.550    21261896.3144   21261903.7054
       390.097         303.972
   9751835.934 7   7585695.37454  24711242.742    24711245.6194          0.0005
     -3613.686       -2815.859
  -9859191.632 9  -7666978.19448  21892911.765    21892912.8804   21892920.9084
      2722.670        2121.561
  -1283513.380 9   -920480.35948  20292293.947    20292294.9294   20292301.5704
      -259.781        -202.427
  -3150120.960 9  -2437256.73747  23550803.264    23550804.7104   23550811.8194
      2156.856        1680.667
  -6266157.544 9  -4870686.11846  24171536.214    24171537.0134   24171545.7654
      1562.403        1217.457
 97  4 29 16 16 30.0000000  0  7 19  2 31  7 27 26 15                0.000501210
   6156407.599 9   4789466.20347  22489314.161    22489315.5914   22489323.5344
     -2492.395       -1942.126
  -2413021.857 9  -1702953.28848  21259686.297    21259687.0554   21259694.4444
       383.674         298.967
   9860319.19316   7670227.74554  24731887.251    24731890.0915          0.0005
     -3619.155       -2820.121
  -9940692.465 9  -7730485.31148  21877402.710    21877403.7704   21877411.8164
      2710.401        2112.001
  -1275511.763 9   -914245.33348  20293816.663    20293817.5924   20293824.2374
      -274.025        -213.526
  -3214621.864 9  -2487517.17147  23538529.148    23538530.6194   23538537.7384
      2142.944        1669.826
  -6312829.827 9  -4907054.10146  24162654.890    24162655.5724   24162664.3484
      1548.716        1206.792
 97  4 29 16 17  0.0000000  0  6 19  2  7 27 26 15                   0.000501858
   6231329.092 9   4847846.56847  22503571.268    22503572.6924   22503580.6274
     -2502.337       -1949.873
  -2424450.756 9  -1711858.92748  21257511.474    21257512.2224   21257519.5804
       378.043         294.579
 -10021832.159 9  -7793711.03148  21861962.315    21861963.4154   21861971.4514
      2698.997        2103.115
  -1267083.758 9   -907678.05748  20295420.426    20295421.3944   20295428.0334
      -287.963        -224.387
  -3278698.918 9  -2537447.33147  23526335.716    23526337.1934   23526344.3064
      2128.705        1658.731
  -6359093.949 9  -4943104.03046  24153850.520    24153851.7594   24153860.6014
      1535.493        1196.488
 97  4 29 16 17 30.0000000  0  6 19  2  7 27 26 15                   0.000502535
   6306564.537 9   4906471.56447  22517888.064    22517889.5214   22517897.4374
     -2513.268       -1958.391
  -2435684.772 9  -1720612.70148  21255373.725    21255374.4454   21255381.8324
       370.933         289.039
 -10102623.448 9  -7856665.25448  21846588.255    21846589.3264   21846597.3504
      2687.160        2093.891
  -1258222.128 9   -900772.89448  20297106.695    20297107.7024   20297114.3604
      -302.689        -235.862
  -3342331.388 9  -2587031.06847  23514226.881    23514228.3754   23514235.4604
      2113.571        1646.938
  -6404945.373 9  -4978832.39146  24145125.038    24145126.5264   24145135.3454
      1521.283        1185.415
 97  4 29 16 18  0.0000000  0  6 19  2  7 27 26 15                   0.000503243
   6382122.065 9   4965347.53247  22532266.180    22532267.6674   22532275.5924
     -2523.864       -1966.647
  -2446715.646 9  -1729208.18348  21253274.603    21253275.3184   21253282.7194
       364.341         283.902
 -10183067.802 9  -7919349.14148  21831280.057    21831281.2674   21831289.2444
      2675.552        2084.846
  -1248926.720 9   -893529.72648  20298875.566    20298876.5834   20298883.2024
      -317.097        -247.089
  -3405514.047 9  -2636264.29647  23502203.680    23502205.1284   23502212.1984
      2098.687        1635.341
  -6450377.161 9  -5014233.75546  24136480.168    24136481.1454   24136489.8954
      1507.406        1174.602
 97  4 29 16 18 30.0000000  0  6 19  2  7 27 26 15                   0.000503981
   6457995.461 9   5024469.63347  22546704.402    22546705.9264   22546713.8544
     -2534.142       -1974.656
  -2457537.091 9  -1737640.47548  21251215.311    21251216.0584   21251223.4704
       357.208         278.344
 -10263155.001 9  -7981754.72448  21816040.011    21816041.1344   21816049.1234
      2663.833        2075.714
  -1239201.325 9   -885951.50048  20300726.250    20300727.2564   20300733.8944
      -331.122        -258.017
  -3468251.558 9  -2685150.65947  23490265.065    23490266.5484   23490273.6444
      2084.044        1623.930
  -6495385.581 9  -5049305.22846  24127915.287    24127916.3094   24127925.0594
      1493.364        1163.660
 97  4 29 16 19  0.0000000  0  6 19  2  7 27 26 15                   0.000504734
   6534162.610 9   5083820.62747  22561198.694    22561200.1014   22561208.0154
     -2543.684       -1982.091
  -2468145.572 9  -1745906.81848  21249196.555    21249197.3224   21249204.7554
       349.654         272.458
 -10342902.256 9  -8043895.41348  21800864.544    21800865.7504   21800873.7134
      2652.510        2066.891
  -1229060.632 9   -878049.66748  20302655.992    20302656.9674   20302663.6144
      -345.271        -269.042
  -3530557.617 9  -2733700.82047  23478408.550    23478410.0854   23478417.2224
      2069.509        1612.604
  -6539980.528 9  -5084054.52546  24119429.007    24119430.0954   24119438.9004
      1479.380        1152.764
 97  4 29 16 19 30.0000000  0  6 19  2  7 27 26 15                   0.000505492
   6610609.133 9   5143389.31647  22575745.857    22575747.3654   22575755.3044
     -2552.741       -1989.149
  -2478511.962 9  -1753984.51548  21247223.849    21247224.6354   21247232.1104
       341.684         266.247
 -10422295.168 9  -8105759.99648  21785756.545    21785757.7874   21785765.7274
      2640.065        2057.194
  -1218481.991 9   -869806.57448  20304669.116    20304670.0344   20304676.6684
      -360.144        -280.632
  -3592428.327 9  -2781911.76347  23466634.928    23466636.4704   23466643.6394
      2055.053        1601.340
  -6584145.627 9  -5118468.87846  24111024.709    24111025.7154   24111034.4864
      1464.885        1141.469
 97  4 29 16 20  0.0000000  0  6 19  2  7 27 26 15                   0.000506251
   6687321.492 9   5203165.14947  22590343.933    22590345.2844   22590353.1944
     -2561.800       -1996.208
  -2488649.435 9  -1761883.84248  21245294.656    21245295.5024   21245303.0164
       333.806         260.108
 -10501303.893 9  -8167325.20848  21770721.629    21770722.9134   21770730.8604
      2626.752        2046.820
  -1207440.961 9   -861203.18248  20306770.157    20306771.0674   20306777.7204
      -376.357        -293.265
  -3653858.754 9  -2829779.62948  23454945.080    23454946.6414   23454953.7874
      2040.116        1589.701
  -6627878.096 9  -5152546.11646  24102702.644    24102703.6494   24102712.4694
      1450.220        1130.042
 97  4 29 16 20 30.0000000  0  6 19  2  7 27 26 15                   0.000506998
   6764299.118 9   5263147.69447  22604992.365    22604993.7284   22605001.5864
     -2570.276       -2002.812
  -2498556.255 9  -1769603.43548  21243409.416    21243410.2864   21243417.7954
       326.593         254.488
 -10579917.343 9  -8228582.42148  21755761.970    21755763.2304   21755771.1794
      2613.989        2036.875
  -1195913.873 9   -852221.04648  20308963.697    20308964.6164   20308971.2374
      -392.301        -305.689
  -3714852.732 9  -2877307.39448  23443338.401    23443339.8964   23443347.0354
      2025.883        1578.610
  -6671175.167 9  -5186284.09846  24094463.731    24094464.4754   24094473.2914
      1436.068        1119.014
 97  4 29 16 21  0.0000000  0  6 19  2  7 27 26 15                   0.000507729
   6841539.463 9   5323334.93947  22619690.754    22619692.0864   22619699.9954
     -2579.122       -2009.705
  -2508255.189 9  -1777161.03848  21241563.790    21241564.6344   21241572.1294
       320.047         249.387
 -10658141.356 9  -8289536.17648  21740876.444    21740877.6464   21740885.5984
      2600.842        2026.630
  -1183897.181 9   -842857.39548  20311250.355    20311251.3174   20311257.9344
      -408.811        -318.554
  -3775412.183 9  -2924496.56448  23431814.365    23431815.8484   23431822.9794
      2011.436        1567.353
  -6714040.982 9  -5219686.01846  24086306.717    24086307.4204   24086316.1664
      1421.543        1107.696
 97  4 29 16 21 30.0000000  0  6 19  2  7 27 26 15                   0.000508443
   6919040.310 9   5383725.17947  22634438.713    22634440.0124   22634447.9474
     -2588.276       -2016.838
  -2517774.388 9  -1784578.58548  21239752.290    21239753.1824   21239760.6904
       314.222         244.848
 -10735975.230 9  -8350185.92348  21726065.136    21726066.3494   21726074.3254
      2587.477        2016.216
  -1171403.502 9   -833122.06548  20313627.825    20313628.7934   20313635.4284
      -424.564        -330.829
  -3835555.897 9  -2971361.78247  23420369.439    23420370.8824   23420378.0034
      1997.488        1556.484
  -6756477.424 9  -5252753.38946  24078231.380    24078232.0314   24078240.7194
      1406.972        1096.342
 97  4 29 16 22  0.0000000  0  6 19  2  7 27 26 15                   0.000509160
   6996837.377 9   5444346.25347  22649242.918    22649244.3474   22649252.2534
     -2597.969       -2024.391
  -2527113.942 9  -1791856.15248  21237975.064    21237975.9444   21237983.4434
       308.551         240.429
 -10813408.196 9  -8410523.28148  21711330.098    21711331.3614   21711339.3144
      2575.127        2006.592
  -1158435.090 9   -823016.81648  20316095.654    20316096.5944   20316103.2404
      -439.611        -342.554
  -3895272.200 9  -3017893.96147  23409005.849    23409007.2124   23409014.3184
      1983.906        1545.901
  -6798467.018 9  -5285472.54446  24070240.645    24070241.7104   24070250.3144
      1392.578        1085.126
 97  4 29 16 22 30.0000000  0  6 19  2  7 27 26 15                   0.000509875
   7074923.121 9   5505192.26147  22664102.239    22664103.6074   22664111.4974
     -2607.376       -2031.722
  -2536279.394 9  -1798998.05048  21236230.963    21236231.8174   21236239.2904
       302.689         235.862
 -10890473.580 9  -8470574.20548  21696665.071    21696666.2684   21696674.2114
      2562.981        1997.128
  -1145027.248 9   -812569.14748  20318647.091    20318648.0224   20318654.6754
      -453.892        -353.682
  -3954583.875 9  -3064110.84547  23397719.207    23397720.5744   23397727.6884
      1970.183        1535.207
  -6840021.655 9  -5317852.76646  24062333.247    24062334.0634   24062342.7334
      1378.016        1073.779
 97  4 29 16 23  0.0000000  0  6 19  2  7 27 26 15                   0.000510597
   7153288.864 9   5566256.44447  22679014.722    22679016.1104   22679024.0194
     -2617.207       -2039.382
  -2545268.703 9  -1806002.69448  21234520.345    21234521.1984   21234528.6874
       296.268         230.858
 -10967182.024 9  -8530346.99648  21682067.895    21682069.1344   21682077.1014
      2550.668        1987.534
  -1131193.367 9   -801789.50848  20321279.612    20321280.5424   20321287.1914
      -468.677        -365.203
  -4013473.911 9  -3109999.17848  23386512.797    23386514.1664   23386521.2864
      1955.469        1523.742
  -6881138.412 9  -5349891.77546  24054509.311    24054509.8224   24054518.4344
      1362.770        1061.899
 97  4 29 16 23 30.0000000  0  6 19  2  7 27 26 15                   0.000511333
   7231939.564 9   5627542.67447  22693981.416    22693982.8334   22693990.7824
     -2625.826       -2046.098
  -2554057.768 9  -1812851.31248  21232847.876    21232848.7104   21232856.1874
       290.191         226.123
 -11043529.616 9  -8589838.60048  21667539.505    21667540.6574   21667548.6394
      2539.496        1978.828
  -1116922.312 9   -790669.21148  20323995.285    20323996.2374   20324002.8914
      -482.374        -375.876
  -4071915.754 9  -3155538.27548  23375391.619    23375393.0184   23375400.1294
      1940.882        1512.376
  -6921798.741 9  -5381575.11246  24046771.997    24046772.4964   24046781.0214
      1348.333        1050.649
 97  4 29 16 24  0.0000000  0  6 19  2  7 27 26 15                   0.000512089
   7310863.512 9   5689041.83247  22709000.204    22709001.5984   22709009.5224
     -2635.066       -2053.298
  -2562650.036 9  -1819546.57548  21231212.804    21231213.6564   21231221.1254
       283.174         220.655
 -11119525.418 9  -8649056.08648  21653077.989    21653079.1384   21653087.1134
      2527.529        1969.503
  -1102218.496 9   -779211.69748  20326793.314    20326794.2954   20326800.9554
      -497.333        -387.532
  -4129891.989 9  -3200714.55348  23364359.107    23364360.5354   23364367.6484
      1924.844        1499.878
  -6962011.282 9  -5412909.51446  24039119.856    24039120.2394   24039128.8124
      1333.163        1038.828
 97  4 29 16 24 30.0000000  0  6 19  2  7 27 26 15                   0.000512858
   7390047.731 9   5750743.79147  22724068.504    22724069.8764   22724077.7844
     -2644.091       -2060.331
  -2571034.577 9  -1826079.97148  21229617.302    21229618.0954   21229625.5764
       275.721         214.847
 -11195161.909 9  -8707993.58548  21638684.852    21638685.9864   21638693.9584
      2514.747        1959.543
  -1087067.789 9   -767405.95948  20329676.361    20329677.3764   20329684.0604
      -512.813        -399.595
  -4187386.416 9  -3245515.39648  23353418.288    23353419.7104   23353426.8474
      1908.071        1486.809
  -7001774.608 9  -5443893.87146  24031553.116    24031553.5634   24031562.0854
      1317.577        1026.683
 97  4 29 16 25  0.0000000  0  6 19  2  7 27 26 15                   0.000513651
   7469505.566 9   5812658.96247  22739188.757    22739190.2114   22739198.1324
     -2653.370       -2067.561
  -2579213.881 9  -1832453.44548  21228060.731    21228061.6024   21228069.0634
       269.352         209.885
 -11270421.394 9  -8766637.31448  21624363.357    21624364.5424   21624372.5074
      2502.119        1949.703
  -1071463.345 9   -755246.65448  20332645.781    20332646.8154   20332653.4864
      -527.807        -411.278
  -4244394.331 9  -3289937.12647  23342570.064    23342571.4754   23342578.6124
      1892.392        1474.591
  -7041078.526 9  -5474520.24046  24024073.640    24024074.2664   24024082.7534
      1302.427        1014.878
 97  4 29 16 25 30.0000000  0  6 19  2  7 27 26 15                   0.000514466
   7549254.849 9   5874801.22747  22754364.697    22754366.0624   22754373.9584
     -2662.971       -2075.042
  -2587187.726 9  -1838666.82248  21226543.428    21226544.2414   21226551.6994
       262.598         204.622
 -11345282.345 9  -8824970.50048  21610117.816    21610118.9774   21610126.9414
      2488.873        1939.382
  -1055405.461 9   -742734.02748  20335701.523    20335702.5484   20335709.1924
      -542.462        -422.698
  -4300935.423 9  -3333995.11147  23331810.680    23331812.0484   23331819.1844
      1877.383        1462.896
  -7079920.156 9  -5504786.37146  24016682.218    24016682.9144   24016691.3774
      1287.423        1003.187
 97  4 29 16 26  0.0000000  0  6 19  2  7 27 26 15                   0.000515295
   7629304.975 9   5937177.92347  22769597.662    22769599.1214   22769607.0404
     -2672.962       -2082.827
  -2594952.161 9  -1844717.02348  21225065.916    21225066.7084   21225074.1364
       255.498         199.089
 -11419732.581 9  -8882983.64448  21595950.490    21595951.5674   21595959.5104
      2475.086        1928.638
  -1038896.581 9   -729869.97648  20338843.053    20338844.1094   20338850.7434
      -557.608        -434.500
  -4357032.836 9  -3377707.39147  23321135.691    23321137.0804   23321144.1884
      1863.068        1451.741
  -7118306.506 9  -5534697.74946  24009377.688    24009378.1744   24009386.6654
      1272.186         991.314
 97  4 29 16 26 30.0000000  0  6 19  2  7 27 26 15                   0.000516120
   7709643.764 9   5999779.53647  22784885.581    22784887.0774   22784895.0084
     -2681.912       -2089.802
  -2602514.726 9  -1850609.92748  21223626.856    21223627.6264   21223635.0084
       249.767         194.624
 -11493776.689 9  -8940680.32348  21581860.317    21581861.4554   21581869.3774
      2462.217        1918.611
  -1021942.950 9   -716659.36548  20342069.253    20342070.2864   20342076.9244
      -571.551        -445.364
  -4412712.771 9  -3421094.34347  23310540.078    23310541.5204   23310548.6494
      1849.991        1441.551
  -7156239.007 9  -5564255.47446  24002158.987    24002159.7884   24002168.2704
      1257.669         980.002
 97  4 29 16 27  0.0000000  0  6 19  2  7 27 26 15                   0.000516955
   7790278.355 9   6062611.65247  22800229.957    22800231.3614   22800239.2354
     -2692.731       -2098.232
  -2609886.087 9  -1856353.83648  21222224.050    21222224.8574   21222232.2664
       242.444         188.917
 -11567407.601 9  -8998055.03448  21567848.830    21567849.9394   21567857.8304
      2447.424        1907.084
  -1004542.895 9   -703100.88648  20345380.374    20345381.4324   20345388.0654
      -587.703        -457.950
  -4467966.548 9  -3464149.21447  23300025.534    23300027.0144   23300034.1784
      1834.306        1429.329
  -7193704.941 9  -5593449.63446  23995029.167    23995030.1754   23995038.7414
      1240.941         966.967
 97  4 29 16 27 30.0000000  0  6 19  2  7 27 26 15                   0.000517792
   7871189.554 9   6125659.31947  22815626.902    22815628.3194   22815636.1594
     -2701.307       -2104.915
  -2617063.076 9  -1861946.28548  21220858.337    21220859.1284   21220866.5374
       235.986         183.885
 -11640636.625 9  -9055116.58548  21553913.741    21553914.8664   21553922.7694
      2434.502        1897.014
   -986689.226 9   -689188.94948  20348777.815    20348778.8784   20348785.5034
      -602.718        -469.650
  -4522777.810 9  -3506859.28648  23289595.279    23289596.7624   23289603.9464
      1819.516        1417.805
  -7230708.676 9  -5622283.65446  23987987.432    23987988.5984   23987997.1084
      1225.791         955.162
 97  4 29 16 28  0.0000000  0  6 19  2  7 27 26 15                   0.000518634
   7952361.543 9   6188910.19247  22831073.383    22831074.8724   22831082.6964
     -2709.611       -2111.385
  -2624044.178 9  -1867386.10348  21219529.900    21219530.6634   21219538.0584
       229.936         179.171
 -11713473.698 9  -9111872.71648  21540053.287    21540054.4194   21540062.3404
      2421.846        1887.153
   -968368.999 9   -674913.45448  20352264.095    20352265.1284   20352271.7544
      -618.085        -481.625
  -4577119.800 9  -3549203.68648  23279254.372    23279255.8094   23279263.0324
      1803.724        1405.499
  -7267241.290 9  -5650750.56246  23981035.600    23981036.6084   23981045.1004
      1210.148         942.972
 97  4 29 16 28 30.0000000  0  6 19  2  7 27 26 15                   0.000519491
   8033787.918 9   6252359.27047  22846568.369    22846569.7694   22846577.6174
     -2718.610       -2118.397
  -2630841.371 9  -1872682.61348  21218236.382    21218237.1814   21218244.6034
       223.367         174.052
 -11785926.829 9  -9168329.67848  21526265.859    21526267.0404   21526274.9454
      2408.644        1876.865
   -949577.304 9   -660270.58848  20355840.061    20355841.0934   20355847.7254
      -634.384        -494.325
  -4630966.112 9  -3591161.84048  23269007.757    23269009.1834   23269016.3624
      1786.382        1391.986
  -7303296.885 9  -5678845.77646  23974174.562    23974175.3944   23974183.9304
      1193.864         930.284
 97  4 29 16 29  0.0000000  0  6 19  2  7 27 26 15                   0.000520362
   8115476.732 9   6316012.86247  22862113.232    22862114.6064   22862122.4934
     -2726.859       -2124.825
  -2637441.792 9  -1877825.79748  21216980.361    21216981.1674   21216988.5904
       217.110         169.177
 -11857998.043 9  -9224489.03748  21512551.207    21512552.3574   21512560.2234
      2396.572        1867.459
   -930306.062 9   -645254.04648  20359507.251    20359508.2994   20359514.9544
      -649.932        -506.441
  -4684304.511 9  -3632724.22947  23258857.756    23258859.2144   23258866.4044
      1770.136        1379.327
  -7338877.853 9  -5706571.14546  23967403.579    23967404.4964   23967413.1024
      1178.698         918.466
 97  4 29 16 29 30.0000000  0  6 19  2  7 27 26 15                   0.000521230
   8197428.502 9   6379871.34847  22877708.141    22877709.5794   22877717.4364
     -2736.082       -2132.012
  -2643836.476 9  -1882808.66548  21215763.522    21215764.2994   21215771.7074
       209.759         163.448
 -11929693.920 9  -9280355.92548  21498907.953    21498909.0704   21498916.9474
      2383.577        1857.333
   -910555.269 9   -629863.83148  20363265.707    20363266.7514   20363273.4154
      -666.133        -519.065
  -4737156.116 9  -3673907.29248  23248800.419    23248801.9134   23248809.0644
      1753.789        1366.589
  -7373991.472 9  -5733932.36646  23960721.739    23960722.5664   23960731.1344
      1162.644         905.956
 97  4 29 16 30  0.0000000  0  6 19  2  7 27 26 15                   0.000522106
   8279656.493 9   6443945.08147  22893355.673    22893357.0714   22893364.9584
     -2745.614       -2139.439
  -2650025.723 9  -1887631.45648  21214585.702    21214586.5144   21214593.9504
       203.083         158.246
 -12001002.813 9  -9335921.27348  21485338.250    21485339.4244   21485347.3054
      2370.504        1847.146
   -890336.735 9   -614109.14548  20367113.219    20367114.2204   20367120.8934
      -681.403        -530.963
  -4789524.464 9  -3714713.79448  23238835.059    23238836.5714   23238843.6994
      1737.770        1354.106
  -7408631.878 9  -5760924.84946  23954129.972    23954130.6964   23954139.2144
      1146.951         893.728
 97  4 29 16 30 30.0000000  0  6 19  2  7 27 26 15                   0.000522997
   8362173.893 9   6508244.30947  22909058.127    22909059.5614   22909067.5734
     -2755.464       -2147.115
  -2656009.874 9  -1892294.42848  21213446.908    21213447.7714   21213455.1794
       195.884         152.637
 -12071909.086 9  -9391172.89048  21471845.186    21471846.3754   21471854.2574
      2356.597        1836.309
   -869658.101 9   -597995.93648  20371048.256    20371049.2544   20371055.9104
      -697.029        -543.139
  -4841414.752 9  -3755147.77748  23228960.665    23228962.1764   23228969.2984
      1721.647        1341.543
  -7442794.680 9  -5787545.17546  23947628.930    23947629.7504   23947638.1814
      1130.582         880.973
 97  4 29 16 31  0.0000000  0  6 19  2  7 27 26 15                   0.000523911
   8444975.843 9   6572765.27247  22924814.935    22924816.2574   22924824.2844
     -2764.629       -2154.256
  -2661789.002 9  -1896797.64348  21212347.199    21212348.0404   21212355.4244
       189.667         147.792
 -12142402.566 9  -9446102.85148  21458430.643    21458431.8974   21458439.7664
      2342.917        1825.650
   -848536.657 9   -581537.68148  20375067.515    20375068.5224   20375075.2194
      -711.032        -554.051
  -4892830.497 9  -3795211.98047  23219176.601    23219178.0924   23219185.2504
      1706.050        1329.390
  -7476474.141 9  -5813788.87746  23941219.960    23941220.7454   23941229.1974
      1114.728         868.619
 97  4 29 16 31 30.0000000  0  6 19  2  7 27 26 15                   0.000524869
   8528062.126 9   6637507.79847  22940625.813    22940627.0914   22940635.1384
     -2774.285       -2161.781
  -2667380.667 9  -1901154.78348  21211283.139    21211283.9944   21211291.3694
       183.157         142.720
 -12212477.258 9  -9500706.48148  21445095.921    21445097.1174   21445104.9594
      2328.748        1814.609
   -826995.752 9   -564752.56948  20379166.629    20379167.6324   20379174.3264
      -725.000        -564.935
  -4943761.583 9  -3834898.52247  23209484.718    23209486.1654   23209493.3754
      1689.306        1316.342
  -7509666.380 9  -5839652.93446  23934903.679    23934904.4874   23934912.8704
      1098.171         855.718
 97  4 29 16 32  0.0000000  0  6 19  2  7 27 26 15                   0.000525879
   8611428.217 9   6702468.34947  22956489.784    22956491.1724   22956499.2064
     -2783.383       -2168.870
  -2672793.900 9  -1905372.88448  21210253.064    21210253.8974   21210261.2514
       177.563         138.361
 -12282134.764 9  -9554985.03448  21431840.617    21431841.7004   21431849.5474
      2315.129        1803.997
   -805043.926 9   -547647.26448  20383343.948    20383344.9254   20383351.6264
      -738.667        -575.585
  -4994195.461 9  -3874197.65247  23199887.508    23199888.9104   23199896.0824
      1673.062        1303.685
  -7542372.989 9  -5865138.58546  23928679.609    23928680.6054   23928688.9214
      1082.220         843.288
 97  4 29 16 32 30.0000000  0  6 19  2  7 27 26 15                   0.000526923
   8695061.476 9   6767637.07347  22972404.671    22972406.1324   22972414.1784
     -2792.230       -2175.764
  -2678031.285 9  -1909453.96448  21209256.361    21209257.2554   21209264.6194
       171.519         133.651
 -12351386.108 9  -9608947.09948  21418662.429    21418663.5854   21418671.4134
      2301.613        1793.465
   -782670.426 9   -530213.37948  20387601.490    20387602.4524   20387609.1574
      -753.069        -586.807
  -5044146.524 9  -3913120.57147  23190382.103    23190383.5404   23190390.6714
      1656.930        1291.114
  -7574595.534 9  -5890247.04446  23922547.774    23922548.8254   23922557.1644
      1065.926         830.592
 97  4 29 16 33  0.0000000  0  6 19  2  7 27 26 15                   0.000527994
   8778973.034 9   6833022.66647  22988372.550    22988373.9854   22988382.0534
     -2801.398       -2182.908
  -2683080.614 9  -1913388.50748  21208295.484    21208296.3854   21208303.7324
       165.498         128.959
 -12420230.693 9  -9662592.20948  21405561.717    21405562.8844   21405570.6864
      2288.382        1783.155
   -759855.180 9   -512435.27848  20391943.089    20391944.0694   20391950.7644
      -767.782        -598.272
  -5093608.439 9  -3951662.31148  23180969.816    23180971.2834   23180978.3934
      1641.061        1278.749
  -7606329.076 9  -5914974.47046  23916509.010    23916510.0434   23916518.4024
      1049.999         818.181
 97  4 29 16 33 30.0000000  0  6 19  2  7 27 26 15                   0.000529069
   8863167.578 9   6898628.76347  23004394.142    23004395.6994   23004403.7774
     -2811.772       -2190.991
  -2687933.342 9  -1917169.84748  21207372.002    21207372.9464   21207380.2824
       157.539         122.758
 -12488665.467 9  -9715917.98848  21392538.958    21392540.1734   21392547.9264
      2273.522        1771.576
   -736566.255 9   -494288.07448  20396374.802    20396375.8204   20396382.5294
      -785.351        -611.962
  -5142597.321 9  -3989835.44548  23171647.557    23171649.0324   23171656.1294
      1624.633        1265.948
  -7637573.901 9  -5939321.08346  23910563.425    23910564.2754   23910572.6704
      1032.560         804.592
 97  4 29 16 34  0.0000000  0  6 19  2  7 27 26 15                   0.000530125
   8947650.400 9   6964459.48847  23020470.788    23020472.2904   23020480.3484
     -2820.417       -2197.727
  -2692562.538 9  -1920777.01148  21206491.166    21206492.0694   21206499.3654
       150.935         117.612
 -12556665.731 9  -9768905.18448  21379598.926    21379600.1404   21379607.9014
      2259.773        1760.862
   -712750.231 9   -475730.14348  20400906.880    20400907.8634   20400914.5884
      -802.422        -625.264
  -5191120.062 9  -4027645.37648  23162414.004    23162415.4964   23162422.6014
      1610.111        1254.632
  -7668307.644 9  -5963269.46246  23904715.043    23904715.8374   23904724.2314
      1016.234         791.871
 97  4 29 16 34 30.0000000  0  6 19  2  7 27 26 15                   0.000531137
   9032391.999 9   7030491.86647  23036596.826    23036598.1834   23036606.2064
     -2829.029       -2204.438
  -2696981.359 9  -1924220.24948  21205650.408    21205651.2174   21205658.5064
       143.748         112.011
 -12624247.113 9  -9821565.98348  21366738.669    21366739.8264   21366747.5834
      2245.461        1749.710
   -688412.511 9   -456765.69848  20405538.221    20405539.1834   20405545.9084
      -820.078        -639.022
  -5239198.917 9  -4065109.42547  23153264.990    23153266.3964   23153273.4904
      1595.019        1242.872
  -7698544.639 9  -5986830.77046  23898961.111    23898961.9204   23898970.3244
       999.489         778.822
 97  4 29 16 35  0.0000000  0  6 19  2  7 27 26 15                   0.000532109
   9117387.530 9   7096722.10647  23052771.058    23052772.3654   23052780.3534
     -2837.184       -2210.793
  -2701191.356 9  -1927500.76248  21204849.227    21204850.0774   21204857.3894
       136.881         106.660
 -12691396.223 9  -9873889.94448  21353960.549    21353961.7774   21353969.5254
      2231.139        1738.550
   -663547.525 9   -437390.39348  20410269.888    20410270.8464   20410277.5594
      -837.435        -652.547
  -5286823.141 9  -4102219.21847  23144202.405    23144203.7994   23144210.8834
      1579.881        1231.076
  -7728283.848 9  -6010004.18546  23893301.821    23893302.7104   23893311.1314
       983.012         765.983
 97  4 29 16 35 30.0000000  0  6 19  2  7 27 26 15                   0.000533038
   9202615.013 9   7163133.09247  23068989.211    23068990.6634   23068998.6754
     -2844.741       -2216.681
  -2705205.765 9  -1930628.87148  21204085.325    21204086.1574   21204093.4394
       130.650         101.805
 -12758120.704 9  -9925883.02348  21341263.330    21341264.4864   21341272.2174
      2217.231        1727.712
   -638172.372 9   -417617.55148  20415098.618    20415099.5924   20415106.3134
      -854.140        -665.564
  -5333994.933 9  -4138976.45847  23135225.849    23135227.2614   23135234.3224
      1564.621        1219.185
  -7757529.456 9  -6032792.98546  23887736.661    23887737.5064   23887745.8294
       966.567         753.169
 97  4 29 16 36  0.0000000  0  6 19  2  7 27 26 15                   0.000533956
   9288078.418 9   7229727.90747  23085252.601    23085253.8804   23085261.8044
     -2852.655       -2222.848
  -2709029.587 9  -1933608.47248  21203357.713    21203358.5164   21203365.8194
       124.571          97.068
 -12824426.667 9  -9977549.98748  21328645.681    21328646.8414   21328654.5884
      2203.489        1717.004
   -612303.873 9   -397460.29048  20420021.193    20420022.1784   20420028.9514
      -869.918        -677.858
  -5380679.407 9  -4175353.95647  23126342.038    23126343.4294   23126350.5324
      1547.809        1206.085
  -7786272.046 9  -6055189.81846  23882267.288    23882267.9804   23882276.2724
       949.871         740.159
 97  4 29 16 36 30.0000000  0  6 19  2  7 27 26 15                   0.000534886
   9373776.636 9   7296505.69147  23101560.349    23101561.7704   23101569.6854
     -2860.328       -2228.827
  -2712679.251 9  -1936452.36948  21202663.064    21202664.0224   21202671.3324
       119.246          92.919
 -12890331.495 9 -10028904.37948  21316104.365    21316105.5794   21316113.3194
      2190.417        1706.818
   -585983.248 9   -376950.72548  20425029.906    20425030.8144   20425037.6134
      -884.350        -689.104
  -5426857.594 9  -4211336.95147  23117554.553    23117555.9634   23117563.1564
      1531.152        1193.105
  -7814520.641 9  -6077201.72046  23876891.716    23876892.4414   23876900.7414
       933.665         727.531
